[{"header": {"dx": 0.06612293990616946, "dy": 0.0552356325346848, "nx": 98, "ny": 59, "la1": 35.046912555036876, "la2": 31.78801023549047, "lo1": -121.43107172385933, "lo2": -114.95102361305473, "refTime": "2026041610", "parameterCategory": 1, "parameterNumber": 2}, "data": [8.48, 8.3, 8.11, 7.73, 7.13, 6.29, 5.69, 5.08, 4.45, 4.08, 3.47, 2.22, 0.57, 0.0, 0.0, 0.0, -0.65, -1.16, -2.53, -3.58, -4.0, -3.04, -2.6, -2.12, -2.12, -1.86, -1.24, -0.71, -0.65, 0.0, 0.65, 1.24, 1.86, 2.6, 2.68, 3.58, 4.47, 4.92, 3.97, 3.13, 2.68, 3.13, 5.26, 7.81, 10.55, 13.04, 16.06, 16.72, 10.8, 1.9, 2.29, 4.65, 5.37, 6.06, 6.32, 7.02, 7.64, 8.68, 9.3, 9.27, 8.67, 7.67, 6.08, 4.74, 4.43, 5.43, 6.06, 6.35, 7.06, 8.67, 8.3, 6.7, 5.09, 4.09, 5.05, 6.44, 8.55, 9.68, 3.13, -1.34, -1.86, -1.86, -1.79, -2.12, -2.12, -1.49, -1.26, -0.57, 0.57, 2.5, 5.09, 6.08, 6.06, 6.7, 6.7, 6.64, 6.0, 5.86, 8.27, 8.3, 8.33, 7.7, 7.1, 6.5, 6.31, 5.7, 5.08, 5.1, 4.47, 2.15, 1.24, 0.6, 1.34, 0.0, 0.0, -0.65, -2.53, -3.14, -4.98, -4.98, -3.04, -2.24, -1.79, -1.7, -1.6, -1.26, -1.24, -0.65, 0.0, 0.71, 1.26, 2.12, 2.68, 4.02, 5.36, 5.77, 5.31, 4.24, 4.15, 5.4, 7.76, 9.27, 11.82, 14.47, 16.73, 11.9, 2.6, 2.11, 3.9, 5.37, 6.39, 6.35, 6.32, 7.35, 7.64, 9.3, 9.3, 9.65, 8.88, 8.05, 6.7, 5.37, 5.37, 5.69, 6.39, 6.7, 7.06, 8.3, 8.67, 7.67, 6.07, 5.05, 5.05, 6.4, 9.08, 9.68, 3.13, -1.34, -1.86, -1.86, -1.79, -2.12, -2.12, -1.49, -1.26, -0.57, 0.57, 2.5, 5.09, 6.08, 6.06, 6.7, 6.7, 6.64, 6.0, 5.86, 8.27, 8.3, 8.33, 8.14, 7.5, 7.13, 6.53, 5.92, 5.46, 5.09, 4.47, 3.84, 1.88, 1.58, 1.2, 1.2, 1.26, 0.0, -0.76, -2.53, -3.49, -4.89, -5.37, -4.0, -2.12, -1.79, -1.34, -1.34, -1.58, -1.49, -0.76, 0.0, 0.0, 1.2, 2.24, 4.02, 5.36, 6.65, 6.36, 6.4, 7.28, 8.59, 10.86, 11.76, 12.72, 13.46, 11.5, 4.47, 2.98, 4.36, 5.37, 6.06, 6.39, 6.39, 6.01, 7.02, 8.03, 9.3, 9.65, 9.27, 9.27, 7.69, 6.39, 5.59, 5.59, 5.94, 6.64, 6.95, 7.31, 8.3, 8.68, 8.67, 7.6, 5.86, 4.24, 5.64, 8.8, 11.66, 5.78, 0.45, -1.86, -1.86, -2.68, -3.53, -3.53, -2.68, -1.7, -0.8, 0.54, 3.48, 6.44, 6.39, 6.01, 6.01, 5.77, 4.84, 4.4, 5.16, 8.52, 8.3, 8.33, 8.37, 7.73, 7.53, 6.92, 6.31, 5.69, 5.08, 5.1, 3.84, 2.07, 1.61, 1.24, 1.26, 1.86, 1.9, 0.65, -1.2, -2.86, -3.6, -5.37, -5.46, -5.34, -2.54, -2.24, -1.34, -1.2, -1.24, -1.66, -1.7, -1.41, 0.0, 2.0, 4.34, 5.7, 7.31, 7.67, 8.68, 9.9, 10.81, 11.2, 10.28, 10.28, 9.08, 7.15, 6.07, 6.08, 6.44, 6.0, 6.44, 6.44, 6.06, 6.32, 7.02, 8.3, 9.27, 9.27, 9.6, 9.2, 7.32, 6.01, 5.21, 5.38, 6.88, 6.88, 7.59, 8.22, 8.87, 9.92, 10.48, 9.2, 6.64, 4.43, 3.97, 6.98, 11.15, 8.46, 0.45, -1.79, -1.79, -3.13, -4.02, -4.02, -3.13, -1.34, 0.0, 1.16, 5.43, 6.7, 5.37, 5.06, 3.16, 2.5, 2.6, 3.51, 4.87, 8.3, 8.3, 8.33, 8.37, 8.14, 7.76, 7.13, 6.94, 6.33, 5.7, 5.09, 4.08, 2.07, 1.2, 1.2, 1.49, 1.9, 1.9, 1.9, 0.0, -2.53, -4.4, -3.47, -4.98, -5.34, -5.81, -2.97, -1.6, -0.6, 0.0, -0.76, -1.6, -2.26, -1.65, 1.18, 4.22, 4.75, 7.47, 8.93, 9.17, 9.23, 8.68, 7.89, 7.45, 8.49, 8.49, 8.19, 7.89, 7.03, 7.03, 6.7, 6.08, 6.08, 5.37, 6.39, 7.69, 8.24, 8.63, 9.6, 9.74, 8.55, 6.08, 4.83, 4.6, 5.52, 6.79, 6.88, 6.88, 7.82, 9.56, 10.91, 11.88, 10.91, 9.45, 7.28, 3.97, 4.46, 6.54, 3.13, 0.0, -2.6, -2.4, -3.13, -4.02, -3.53, -2.0, 0.0, 1.88, 3.72, 5.37, 5.09, 4.12, 1.88, 0.0, 0.0, 1.79, 3.97, 6.07, 8.3, 8.3, 8.33, 8.33, 8.14, 8.16, 7.53, 6.92, 6.56, 5.69, 5.08, 4.05, 2.07, 1.49, 1.49, 1.49, 1.49, 2.53, 2.79, 0.7, -2.3, -6.08, -6.32, -5.94, -4.98, -4.98, -4.65, -2.48, -0.87, 0.0, 0.0, 0.0, 0.0, 0.0, 1.4, 2.9, 4.0, 6.88, 7.9, 5.3, 2.86, 2.54, 5.36, 8.49, 9.83, 9.36, 8.63, 7.47, 6.64, 6.07, 6.4, 6.07, 5.46, 5.46, 6.44, 7.6, 7.6, 7.89, 9.08, 9.6, 7.6, 4.43, 3.91, 3.7, 5.28, 6.79, 6.88, 6.24, 6.53, 8.65, 10.87, 11.26, 11.5, 11.83, 12.04, 9.11, 3.32, 1.2, 0.45, -0.45, -2.86, -2.53, -3.07, -3.82, -2.53, -0.7, 1.13, 3.72, 4.36, 4.01, 3.48, 2.51, 0.0, -2.6, -0.89, 2.4, 4.93, 6.28, 8.33, 8.56, 8.33, 8.33, 8.37, 8.16, 7.76, 7.31, 6.94, 5.92, 5.06, 4.03, 2.53, 1.9, 3.16, 1.49, 2.21, 3.16, 3.72, 2.88, 0.0, -2.53, -6.44, -7.06, -5.69, -4.47, -3.4, -2.21, -2.26, -0.82, 0.0, 0.57, 1.26, 2.41, 2.8, 2.06, 3.15, 5.72, 3.93, 0.63, 0.45, 1.34, 3.58, 7.6, 8.49, 6.79, 7.07, 7.67, 7.03, 7.4, 6.99, 5.43, 5.43, 5.43, 5.6, 6.79, 7.21, 7.21, 7.71, 8.63, 6.0, 3.22, 2.26, 3.27, 4.12, 6.14, 7.64, 6.39, 6.07, 8.14, 9.83, 9.33, 9.6, 11.66, 12.74, 12.74, 7.56, 1.34, 0.45, 0.0, -2.07, -2.73, -2.79, -2.3, -1.55, 0.0, 2.12, 3.0, 3.72, 2.98, 2.44, 0.0, -2.68, -3.13, 0.0, 2.53, 5.05, 5.05, 8.33, 8.33, 8.33, 8.77, 8.37, 8.4, 8.18, 7.55, 6.92, 6.31, 5.04, 4.0, 2.6, 2.15, 3.79, 1.9, 2.53, 3.79, 4.12, 4.19, 2.68, 2.17, 0.63, -2.07, -4.46, -3.17, -3.14, -3.3, -3.17, -3.2, -2.16, 0.0, 1.08, 3.49, 4.36, 3.55, 2.9, 2.4, 1.34, -0.0, -0.0, 0.89, 1.79, 2.24, 2.54, 3.16, 4.65, 7.06, 7.07, 6.99, 4.0, 4.4, 5.05, 5.43, 5.86, 5.86, 6.28, 6.36, 7.42, 6.36, 4.46, 2.2, 1.47, 2.2, 3.33, 5.3, 7.69, 7.35, 5.75, 7.11, 8.46, 8.49, 9.39, 11.15, 12.05, 11.62, 10.26, 6.36, 3.82, 2.6, 0.0, -2.04, -2.04, -1.26, 0.0, 0.65, 1.93, 2.2, 2.73, 2.0, 0.0, -3.39, -3.58, -2.0, 0.0, 2.51, 4.12, 4.66, 8.33, 8.33, 8.33, 8.77, 8.79, 8.4, 8.16, 7.53, 7.31, 6.94, 5.67, 4.6, 3.35, 2.4, 2.47, 2.4, 3.22, 3.72, 3.84, 3.2, 3.13, 3.9, 4.85, 2.12, 0.0, -1.4, -2.0, -4.46, -5.72, -3.6, -1.14, 0.0, 1.09, 2.17, 3.09, 3.11, 2.2, 0.0, 0.0, -0.0, 0.45, 0.0, 0.0, 0.45, -0.0, 0.71, 1.9, 5.37, 6.44, 6.07, 6.32, 4.46, 5.05, 5.34, 5.34, 5.86, 6.07, 6.55, 6.55, 5.59, 3.84, 2.4, 1.55, 2.4, 3.35, 5.46, 8.14, 8.14, 5.36, 5.77, 7.11, 7.94, 10.16, 10.52, 10.52, 9.72, 8.01, 8.94, 10.26, 8.05, 1.9, -1.13, -0.66, 0.0, 0.0, 0.67, 1.35, 1.33, 0.53, -1.2, -3.39, -3.98, -3.39, -1.61, 0.53, 3.16, 4.12, 4.12, 8.33, 8.33, 8.33, 8.77, 8.79, 8.79, 8.16, 8.18, 7.55, 7.16, 6.53, 5.64, 5.04, 3.45, 2.35, 2.57, 3.21, 3.36, 2.17, 2.21, 2.12, 2.0, 2.6, 2.6, 1.58, 0.0, -1.2, -2.21, -5.44, -2.17, 0.0, 0.0, 0.0, 0.0, 0.0, 1.83, 1.49, 0.45, 0.0, 0.0, 0.0, 0.0, 0.45, 0.45, -0.0, 0.6, 1.26, 1.86, 3.83, 4.81, 4.81, 5.09, 5.09, 5.05, 5.34, 5.86, 6.07, 6.66, 6.26, 4.66, 2.98, 2.35, 3.17, 3.22, 4.11, 5.05, 7.47, 7.76, 4.92, 4.93, 6.0, 8.25, 9.68, 10.37, 9.89, 8.97, 6.94, 6.94, 9.15, 10.7, 6.67, 1.9, 0.0, 0.0, 0.71, 0.71, 0.71, 0.0, -0.89, -2.68, -3.39, -3.2, -2.53, -1.16, 0.61, 3.16, 4.46, 4.46, 8.33, 8.33, 8.33, 8.77, 8.79, 8.79, 8.4, 8.43, 7.93, 7.55, 7.16, 6.94, 6.31, 5.26, 3.32, 3.21, 3.25, 2.84, 2.28, 1.14, 0.0, 0.0, 0.78, 0.7, 0.0, 0.45, -0.45, -0.63, -1.49, -0.96, 0.0, 0.0, -0.32, 0.0, 0.0, 0.0, 0.0, 0.45, -0.89, 0.0, 0.0, 0.0, 0.45, 0.89, -0.0, 0.57, 0.71, 1.49, 1.88, 2.41, 3.79, 4.43, 5.46, 5.43, 5.34, 6.07, 6.66, 6.26, 4.47, 2.23, 2.35, 3.15, 3.09, 3.33, 3.79, 4.65, 6.08, 6.4, 4.47, 4.4, 5.43, 6.96, 8.49, 8.93, 9.18, 8.25, 5.31, 3.48, 5.09, 8.14, 7.81, 3.97, 1.7, 0.8, 1.79, 2.17, 2.17, 1.7, 1.2, 0.0, -1.86, -2.23, -1.8, -0.59, 0.59, 2.51, 3.48, 3.15, 8.11, 8.11, 8.37, 8.37, 8.79, 8.79, 8.81, 8.16, 8.18, 8.2, 7.55, 7.57, 7.33, 6.97, 6.64, 5.72, 4.73, 4.45, 3.78, 2.8, 1.07, 0.0, -1.11, -0.85, -1.34, -2.24, -1.79, -1.26, -1.2, -2.12, -1.86, -1.79, -1.86, -1.86, -0.89, -1.2, -1.7, -1.79, -1.7, -1.2, -0.89, -0.45, -0.0, -0.0, -0.0, -0.0, -0.0, -0.0, 0.76, 1.49, 2.21, 3.22, 4.46, 5.05, 5.75, 5.86, 6.79, 5.77, 2.68, -0.0, 0.8, 3.06, 2.99, 2.26, 1.44, 3.88, 5.64, 6.01, 4.4, 3.58, 3.39, 4.66, 5.95, 6.44, 6.94, 6.94, 3.45, 1.88, 2.79, 4.12, 3.39, 3.13, 3.13, 1.79, 2.17, 2.63, 3.13, 3.13, 3.13, 2.68, 1.6, -0.65, -1.33, -0.59, 1.13, 2.23, 2.51, 2.0, 8.37, 8.37, 8.37, 8.37, 8.79, 8.79, 8.79, 8.81, 8.43, 8.18, 8.2, 7.83, 7.57, 8.24, 7.93, 7.55, 6.79, 6.15, 6.15, 5.65, 5.01, 3.09, 1.24, 0.0, -1.34, -1.79, -2.24, -2.4, -3.2, -4.44, -3.13, -2.24, -2.6, -2.6, -2.12, -2.24, -2.24, -2.24, -2.68, -2.24, -1.7, -1.58, -0.54, -0.54, -0.85, -0.85, -0.85, -0.71, -0.0, -0.0, 0.6, 1.7, 2.68, 3.13, 3.13, 3.58, 4.98, 6.79, 2.68, -0.54, -0.79, 1.52, 2.23, 0.77, -0.0, 1.52, 3.61, 4.71, 4.83, 4.36, 4.46, 3.82, 3.07, 3.45, 5.05, 6.0, 3.39, 2.17, 2.0, 2.12, 1.34, 2.17, 3.82, 4.0, 3.13, 3.13, 3.58, 3.53, 3.07, 3.13, 3.13, 2.17, 0.57, 0.0, 0.53, 1.61, 1.2, 1.13, 8.37, 8.37, 8.37, 8.37, 8.37, 8.79, 8.79, 8.81, 8.56, 8.57, 8.2, 7.95, 8.22, 8.23, 8.24, 8.22, 8.08, 7.9, 7.76, 7.76, 8.51, 8.48, 7.4, 5.34, 3.13, 1.34, 0.0, -1.79, -2.68, -3.54, -4.02, -2.24, -4.02, -1.79, -1.79, -1.79, -1.79, -1.79, -2.24, -2.17, -1.86, -1.86, -1.58, -2.48, -1.41, -1.41, -0.57, -1.26, -1.6, -0.95, 0.45, 0.89, 1.6, 1.6, 1.6, 1.7, 1.34, 4.92, 5.36, -0.0, -2.47, -0.0, -0.0, -0.0, -0.0, -0.0, 0.72, 2.2, 4.94, 5.21, 5.86, 5.3, 3.07, 2.4, 3.14, 3.83, 3.07, 1.79, 2.24, 2.24, 1.79, 2.15, 3.72, 4.73, 3.82, 3.39, 3.82, 3.32, 3.07, 3.13, 3.58, 3.58, 2.6, 1.86, 1.26, 0.63, 0.0, -0.53, 8.37, 8.37, 8.37, 8.37, 8.37, 8.79, 9.07, 8.81, 8.81, 8.83, 8.85, 8.58, 8.59, 8.87, 8.87, 8.56, 8.82, 8.73, 8.93, 8.96, 9.35, 9.71, 9.27, 8.64, 6.94, 5.24, 3.39, 1.86, 0.0, -0.45, -1.79, -2.24, -2.24, -2.68, -2.24, -1.58, -1.26, -0.45, -1.79, -1.7, -1.86, -3.35, -2.53, -2.53, -2.53, -1.6, -1.27, -2.53, -2.53, -1.6, -0.89, 0.45, 0.89, 0.89, 0.89, 0.45, 0.8, 3.45, 5.81, 1.13, -2.07, -1.9, -0.85, -0.71, -0.0, -0.0, -0.0, 0.8, 1.74, 2.76, 4.36, 5.72, 4.0, 1.79, 0.57, 1.2, 2.12, 2.4, 2.68, 2.68, 2.6, 2.86, 4.09, 4.09, 2.84, 3.14, 3.6, 3.32, 2.6, 2.24, 3.13, 3.53, 3.51, 2.6, 2.24, -0.63, -1.9, -1.9, 8.14, 8.14, 8.14, 8.4, 8.4, 8.81, 8.81, 8.81, 8.81, 8.83, 8.85, 8.85, 8.86, 8.59, 8.59, 8.87, 9.46, 9.42, 9.3, 9.76, 9.63, 9.88, 9.92, 9.7, 9.11, 8.3, 7.07, 6.16, 4.8, 3.53, 2.12, 0.45, -0.89, -1.79, -1.79, -0.6, -0.6, -0.6, -1.58, -3.2, -1.86, -1.26, -2.21, -2.21, -2.53, -2.53, -2.84, -2.53, -1.4, -1.4, -1.58, 0.0, 0.45, 0.63, 0.63, 0.45, 1.26, 2.54, 2.68, 1.74, -0.0, -1.2, -1.2, -1.58, -0.45, 0.45, 0.0, 0.45, 1.4, 2.68, 3.72, 4.88, 3.58, 0.63, -0.45, 0.54, 2.51, 4.09, 3.07, 2.68, 2.6, 2.8, 2.86, 3.74, 2.8, 2.23, 2.53, 2.8, 2.24, 2.24, 3.07, 3.32, 2.6, 3.13, 2.68, 0.6, -0.6, -0.6, 8.4, 8.4, 8.4, 8.4, 8.4, 8.81, 8.81, 8.81, 8.81, 9.48, 9.21, 8.85, 8.86, 8.59, 8.87, 9.19, 9.48, 9.72, 9.94, 9.86, 10.02, 10.11, 9.92, 9.86, 9.68, 9.68, 9.32, 8.79, 7.87, 6.94, 5.57, 3.82, 1.6, 0.0, 0.45, -0.0, -0.57, -0.71, -0.8, -1.9, -2.8, -1.2, -2.53, -1.26, -2.53, -1.6, -1.4, -1.4, -1.2, -1.2, -0.0, -0.0, -0.0, -0.0, 1.58, 2.24, 3.13, 3.2, 2.53, 1.4, 1.9, -0.0, -0.0, -1.9, -1.58, 0.0, 0.0, 0.0, 0.63, 3.47, 5.81, 4.11, 1.2, -0.57, -0.63, -0.0, 3.91, 6.95, 6.7, 3.45, 3.32, 3.07, 3.07, 2.91, 2.6, 1.79, 1.26, 1.34, 1.7, 2.8, 3.39, 3.39, 2.91, 2.91, 3.51, 2.4, 0.6, 0.6, 8.4, 8.4, 8.4, 8.4, 8.81, 8.81, 8.81, 8.81, 9.09, 9.48, 9.21, 9.49, 9.5, 8.86, 8.87, 9.19, 10.09, 10.06, 10.23, 10.3, 10.8, 10.4, 10.42, 9.86, 10.22, 10.66, 10.47, 10.01, 9.11, 8.64, 7.26, 5.81, 4.11, 2.6, 1.34, -0.0, -0.0, -0.95, -0.63, -0.89, -0.89, -1.34, -1.2, -0.95, -1.2, -1.2, -1.2, -0.0, -0.0, -0.0, -0.0, -0.0, -0.0, -0.0, -0.0, 1.9, 2.8, 2.53, 2.8, 2.68, 2.68, 1.79, -0.0, -2.48, -3.48, -1.26, -0.4, 0.0, 0.65, 3.58, 6.99, 4.0, 0.6, -0.63, -1.2, -0.0, 3.11, 8.3, 9.66, 7.68, 6.08, 5.05, 3.53, 2.0, 1.7, 1.6, 1.86, 1.27, 1.58, 2.5, 2.91, 3.07, 2.91, 3.07, 3.32, 3.32, 2.0, 2.0, 8.16, 8.16, 8.56, 8.56, 8.56, 8.83, 8.83, 9.09, 9.09, 9.48, 9.48, 9.49, 9.22, 9.21, 8.87, 9.1, 9.17, 9.77, 9.59, 10.16, 11.41, 11.6, 10.55, 9.08, 8.4, 9.75, 8.72, 8.0, 7.35, 7.2, 7.01, 6.1, 5.31, 4.3, 2.63, 2.24, 1.6, 0.95, 0.0, 0.0, 0.0, -0.45, -0.45, -1.26, -1.58, -0.0, -0.0, -0.0, -0.0, -0.0, -0.0, -0.0, -0.0, -0.0, 1.13, 1.6, 2.53, 3.39, 3.58, 3.13, 2.68, 1.34, -1.9, -1.49, -2.68, -2.15, -1.26, 0.45, 2.53, 6.0, 8.43, 9.81, 11.4, 9.58, 3.97, 1.79, 2.68, 5.81, 9.26, 8.91, 6.36, 4.73, 3.58, 1.86, 1.24, 1.88, 2.07, 2.48, 2.15, 1.33, 1.24, 2.4, 2.91, 2.79, 3.07, 3.32, 2.68, 2.68, 8.16, 8.43, 8.83, 8.83, 8.83, 8.83, 8.83, 8.83, 8.83, 9.21, 9.21, 9.49, 9.22, 9.5, 9.21, 9.19, 8.87, 8.24, 7.9, 8.68, 10.87, 11.88, 11.07, 9.27, 8.31, 7.68, 6.39, 5.93, 5.86, 5.21, 5.08, 5.31, 5.09, 4.34, 3.98, 3.13, 2.68, 2.24, 2.24, 1.79, 1.34, 0.89, 0.89, -0.0, -0.0, -0.0, -0.0, -0.0, -0.0, -0.0, -0.0, -0.0, -0.0, -0.0, 0.71, 1.24, 3.48, 1.86, 1.79, 2.68, 1.34, 1.34, -2.8, -2.48, -2.21, -2.23, -1.26, -0.0, 2.68, 6.26, 8.82, 13.05, 17.15, 18.26, 14.73, 8.24, 4.71, 5.94, 7.28, 7.15, 6.71, 6.26, 4.47, 2.4, 1.2, 1.33, 1.6, 1.61, 1.8, 0.51, 0.0, 1.26, 2.15, 1.84, 1.84, 2.53, 2.53, 2.53, 8.43, 8.83, 8.83, 8.83, 8.83, 8.83, 8.83, 8.83, 8.83, 9.21, 9.49, 9.49, 9.49, 9.5, 9.84, 9.5, 9.48, 8.56, 7.9, 8.85, 10.24, 10.88, 10.99, 10.06, 9.46, 8.19, 6.23, 4.71, 4.0, 3.35, 3.6, 3.7, 4.3, 3.87, 3.98, 3.58, 3.13, 3.13, 2.68, 2.68, 2.24, 1.79, 1.79, 1.2, 0.6, -0.0, -0.0, -0.0, -0.0, -0.0, -0.0, -0.0, -0.0, -0.0, -0.0, 1.24, 1.88, 1.9, 2.24, 0.0, -2.24, -3.2, -3.35, -3.82, -2.12, -1.7, -1.6, -0.0, 1.49, 5.46, 7.69, 11.34, 13.53, 12.96, 10.93, 8.03, 5.52, 5.99, 5.38, 5.09, 5.2, 5.81, 5.32, 3.97, 2.24, 0.99, 0.71, 0.6, 1.86, 1.0, 0.0, 0.57, 1.58, 1.16, 1.13, 1.6, 1.88, 1.88, 8.43, 8.83, 8.83, 8.83, 8.83, 8.83, 8.83, 8.83, 8.83, 9.49, 9.49, 9.49, 9.49, 10.13, 9.84, 10.13, 9.5, 9.19, 9.5, 10.12, 10.69, 10.06, 9.66, 9.66, 9.94, 9.21, 7.61, 6.1, 5.09, 4.3, 3.82, 3.39, 3.53, 3.53, 3.53, 3.58, 3.13, 3.13, 2.68, 2.68, 2.68, 2.24, 1.79, 1.6, 1.2, 0.6, -0.0, -0.0, -0.0, -0.0, -0.0, -0.0, -0.0, -0.0, -0.0, 1.27, 0.7, 0.7, -0.0, -2.24, -2.24, -2.23, -2.23, -2.0, -1.6, -1.26, -1.26, -0.6, -0.0, 1.08, 3.2, 6.44, 5.72, 2.12, 1.33, 2.7, 4.24, 4.86, 4.15, 2.6, 3.16, 4.02, 4.11, 3.78, 2.84, 2.15, 1.6, 1.79, 3.13, 3.07, 2.53, 1.58, 1.86, 1.2, 0.0, 0.0, 0.57, 0.57, 8.43, 8.43, 8.83, 8.83, 8.83, 8.83, 8.83, 9.12, 9.12, 8.85, 9.22, 9.22, 9.49, 9.84, 10.13, 9.84, 9.82, 9.8, 10.12, 10.99, 11.23, 10.51, 9.58, 8.84, 9.1, 9.35, 8.68, 8.3, 7.69, 6.51, 5.7, 4.77, 4.43, 3.98, 3.53, 3.58, 3.13, 3.13, 3.13, 2.68, 2.68, 2.24, 2.24, 1.7, 1.6, 0.8, -0.0, -0.0, -0.0, -0.0, -0.0, -0.0, -0.0, -0.0, -0.0, -0.0, -0.0, -0.0, -0.0, -0.0, -0.89, -1.26, -0.57, -0.57, -0.71, -0.71, -0.57, -0.0, -0.0, -0.0, -0.0, 0.76, 1.7, -0.89, -1.2, 0.0, 2.06, 3.47, 2.88, 2.01, 1.19, 2.15, 2.63, 2.84, 3.16, 2.79, 2.51, 3.07, 4.3, 5.16, 3.2, 2.5, 2.15, 1.0, 0.0, 0.0, 0.0, 0.0, 8.43, 8.43, 8.83, 8.83, 8.83, 8.83, 9.12, 9.49, 9.22, 9.22, 9.22, 9.22, 9.22, 10.13, 10.13, 9.84, 10.13, 9.82, 10.72, 11.28, 11.23, 10.7, 10.3, 9.35, 8.96, 8.82, 9.2, 9.01, 9.21, 8.48, 7.87, 7.06, 6.16, 5.33, 4.88, 4.47, 4.02, 3.58, 3.58, 3.13, 3.13, 2.68, 2.24, 2.24, 1.7, 1.26, 1.58, 1.58, -0.0, -0.0, -0.0, -0.0, -0.0, -0.0, -1.13, -1.27, -0.65, -0.65, -0.0, 0.8, 1.2, 0.63, -0.0, -0.0, -0.76, -0.76, -0.0, -0.0, -0.0, -0.0, -0.0, 5.73, 5.77, 1.79, -0.89, 0.0, 0.0, 2.17, 3.11, 1.36, 0.67, 0.51, 0.95, 1.79, 1.86, 2.15, 3.07, 3.2, 4.0, 5.09, 3.13, 1.9, 1.61, 0.54, -0.54, -0.54, -0.54, -0.54, 8.16, 8.16, 8.83, 8.83, 8.83, 8.83, 9.49, 9.22, 9.22, 9.22, 9.22, 9.5, 9.5, 9.5, 9.84, 10.13, 10.13, 10.43, 10.4, 10.69, 10.88, 11.07, 10.41, 10.16, 9.48, 9.2, 8.68, 9.01, 9.01, 9.21, 8.91, 8.33, 7.87, 7.06, 6.23, 5.78, 5.36, 4.92, 4.47, 4.02, 3.58, 3.13, 3.13, 2.63, 2.17, 2.12, 1.86, 1.86, 1.24, 0.71, -0.0, -0.0, -0.0, -0.0, -1.4, -1.6, -2.23, -1.24, -0.8, 0.6, 2.54, 2.4, 1.24, -0.0, -0.0, -0.0, -0.0, -0.0, -0.0, 0.45, 1.9, 5.43, 10.68, 9.81, 7.45, 3.39, 1.7, 1.33, 3.2, 2.11, 1.19, 0.57, 0.61, 0.99, 0.45, 0.63, 1.86, 2.21, 1.84, 1.94, 3.91, 1.2, 0.0, -0.57, -1.24, -1.2, -1.58, -1.58, 8.16, 8.16, 8.43, 8.83, 8.83, 9.12, 9.49, 9.22, 9.22, 9.22, 9.5, 9.5, 9.21, 9.21, 9.5, 9.82, 9.82, 10.4, 10.69, 10.65, 10.59, 10.87, 10.96, 10.68, 10.16, 9.48, 9.2, 8.91, 9.01, 8.79, 8.91, 8.64, 8.33, 8.3, 7.52, 7.13, 6.68, 6.23, 5.36, 4.92, 4.47, 4.02, 4.02, 3.53, 3.07, 2.63, 2.4, 2.4, 1.9, 1.24, 0.54, -0.0, -0.0, -0.99, -1.6, -2.53, -2.84, -3.35, -3.2, -0.0, 1.58, 3.58, 2.15, -0.0, -0.0, -0.0, -0.0, -0.0, -0.0, 0.45, 1.24, 3.58, 8.01, 11.98, 12.65, 11.5, 6.13, 2.53, 2.0, 2.0, 1.94, 1.23, 0.59, -0.6, -1.6, -0.0, 1.2, 1.13, 0.57, 0.57, 1.76, 3.12, 0.89, -0.71, -1.24, -1.58, -1.49, -1.49, 8.16, 8.16, 8.43, 8.83, 8.83, 9.12, 9.22, 9.22, 9.5, 9.5, 9.21, 9.21, 9.5, 9.5, 9.21, 9.8, 9.8, 10.4, 10.36, 10.65, 10.59, 10.87, 10.79, 10.68, 10.55, 9.88, 9.71, 9.42, 9.21, 8.72, 8.91, 8.48, 8.64, 8.33, 8.33, 8.42, 7.97, 7.52, 7.13, 6.68, 6.23, 5.81, 5.36, 4.02, 3.98, 3.53, 2.91, 2.91, 2.4, 1.86, 1.24, -0.0, -0.0, -0.61, -1.24, -1.26, -3.2, -4.24, -2.17, -1.7, -0.0, 1.49, 2.0, 1.4, -0.0, -0.0, -0.0, -0.0, 0.45, 0.63, 1.24, 2.15, 5.34, 7.6, 8.8, 9.92, 8.32, 3.13, 0.59, 1.27, 2.0, 1.94, 0.0, -2.24, -2.91, -1.24, -0.0, 0.59, 0.57, -0.0, 0.53, 3.14, 4.73, 2.24, 0.6, 0.0, 0.0, 0.0, 8.18, 8.18, 8.18, 8.18, 8.57, 8.85, 9.22, 9.22, 9.5, 9.21, 9.5, 9.21, 9.21, 9.5, 9.5, 9.5, 9.8, 10.09, 10.36, 10.65, 10.59, 10.87, 10.79, 10.68, 10.55, 10.16, 9.88, 10.11, 9.92, 9.63, 8.96, 8.48, 8.64, 8.64, 8.33, 8.33, 8.41, 7.97, 7.51, 7.13, 6.68, 6.23, 5.81, 5.36, 4.92, 4.44, 4.43, 3.53, 2.91, 2.4, 1.26, -0.0, -0.0, -0.61, -1.16, -1.26, -2.8, -3.82, -2.6, -2.4, -0.99, -0.0, 1.24, 1.24, 0.71, -0.0, 0.57, 0.45, 0.0, 0.6, 1.24, 2.53, 3.48, 2.86, 3.53, 5.36, 7.92, 3.98, 1.2, 1.33, 2.51, 4.75, 1.73, -1.7, -3.07, -2.91, -1.88, -0.0, 0.61, 1.2, 0.6, 2.17, 6.64, 6.64, 4.43, 3.13, 2.68, 2.68, 7.76, 7.76, 8.18, 8.18, 8.18, 8.85, 8.85, 9.5, 9.21, 9.21, 9.21, 9.21, 9.19, 9.19, 9.19, 9.19, 9.77, 10.09, 10.65, 10.3, 10.59, 10.51, 10.79, 10.68, 10.3, 10.16, 10.27, 9.88, 9.71, 9.51, 9.21, 8.96, 9.11, 8.64, 8.64, 8.33, 8.3, 7.97, 7.52, 7.51, 6.68, 6.23, 5.78, 3.58, 3.13, 4.89, 4.88, 4.02, 3.58, 2.6, 1.6, -0.0, -0.0, -0.53, -0.61, -1.0, -1.2, -3.35, -2.4, -2.4, -1.58, -0.6, -0.0, -0.0, -0.0, -0.0, 0.61, 0.63, 0.0, 0.0, 1.26, 3.32, 4.93, 4.43, 4.37, 6.64, 7.47, 4.88, 3.07, 1.61, 2.53, 5.37, 4.75, 1.84, -1.34, -2.91, -3.07, -1.86, -0.0, 0.63, 0.45, 1.34, 3.13, 6.64, 6.64, 5.94, 4.73, 4.73, 7.53, 7.53, 7.53, 8.2, 8.46, 8.85, 8.85, 9.21, 9.21, 9.21, 9.21, 9.19, 9.19, 9.19, 9.19, 9.48, 9.77, 9.77, 10.06, 10.06, 10.23, 10.51, 10.41, 10.41, 10.3, 10.55, 10.4, 9.88, 9.71, 9.51, 9.63, 9.21, 9.39, 8.96, 8.64, 8.64, 8.33, 7.87, 7.97, 7.51, 7.06, 6.6, 6.23, 5.34, 4.92, 3.13, 4.02, 4.47, 3.58, 2.68, 1.79, 0.95, -0.0, -0.65, -0.65, -0.61, -1.33, -2.84, -2.4, -3.04, -2.17, -0.89, 0.45, -0.89, -0.65, -0.0, -0.0, -0.0, 0.0, 0.0, 0.6, 2.6, 7.15, 8.36, 7.97, 8.46, 8.65, 7.2, 5.2, 3.82, 2.79, 4.75, 6.01, 5.35, 3.07, -0.32, -2.63, -2.68, -1.79, -0.63, 0.0, 0.32, 2.24, 4.43, 5.94, 6.42, 6.36, 6.36, 7.53, 7.53, 7.8, 8.2, 8.2, 8.2, 8.86, 8.86, 8.87, 9.21, 9.21, 9.19, 9.19, 9.19, 9.48, 9.48, 9.48, 9.72, 9.72, 10.01, 10.01, 9.94, 10.41, 10.41, 10.3, 10.55, 10.4, 10.11, 9.51, 9.51, 9.51, 9.7, 9.7, 9.39, 8.96, 8.64, 8.64, 8.3, 7.87, 7.51, 7.06, 6.61, 6.16, 5.78, 5.33, 3.58, 4.02, 4.92, 4.02, 3.13, 2.24, 1.79, 0.6, -0.54, -0.65, -0.61, -1.33, -1.84, -3.35, -2.6, -2.24, -1.7, -1.6, -1.86, -1.49, -1.2, -0.65, -0.0, 1.58, 1.79, 1.2, 0.89, 3.51, 10.32, 11.62, 10.23, 9.23, 8.3, 7.69, 7.47, 4.09, 2.23, 4.12, 5.86, 5.6, 3.98, 0.45, -2.68, -3.13, -2.68, -1.79, -0.45, 1.34, 3.13, 4.88, 5.78, 5.67, 5.67, 7.55, 7.55, 7.55, 7.55, 7.95, 8.22, 8.22, 8.59, 8.87, 8.87, 9.19, 9.19, 9.19, 9.48, 9.48, 9.17, 9.46, 9.46, 9.76, 9.42, 9.94, 9.94, 9.86, 9.86, 10.3, 10.16, 10.4, 9.71, 9.08, 9.01, 9.42, 9.51, 9.63, 9.21, 8.96, 8.96, 8.64, 8.21, 8.3, 7.84, 7.51, 7.06, 6.6, 6.16, 5.7, 5.7, 5.7, 5.33, 4.47, 4.02, 3.58, 2.68, 1.7, 0.6, -0.0, -0.65, -0.61, -1.16, -1.84, -3.39, -2.17, -1.86, -1.34, -1.24, -1.49, -1.49, -1.24, -0.95, 0.63, 2.68, 1.79, 0.45, 0.45, 7.08, 13.21, 11.15, 6.06, 2.98, 3.48, 6.25, 5.94, 3.39, 2.91, 5.67, 6.6, 6.68, 5.36, 1.6, -1.34, -2.24, -2.17, -0.89, 0.45, 2.24, 4.02, 4.87, 4.77, 4.77, 7.13, 7.13, 7.55, 7.83, 7.83, 8.22, 8.22, 8.87, 8.87, 8.87, 9.19, 9.19, 9.19, 9.48, 9.17, 9.46, 9.46, 9.42, 9.42, 9.08, 9.37, 9.37, 9.86, 9.86, 9.76, 10.02, 9.63, 9.88, 9.71, 9.08, 8.91, 9.01, 9.21, 8.79, 8.96, 8.91, 8.64, 8.64, 8.17, 7.87, 7.4, 6.94, 6.61, 6.16, 6.16, 5.7, 5.7, 5.34, 4.92, 4.47, 4.47, 4.02, 3.13, 2.12, 0.6, -0.0, -0.0, -0.53, -0.61, -1.2, -2.24, -1.34, -1.58, -0.57, -1.49, -1.49, -1.24, -1.26, 0.45, 1.34, 1.26, -0.0, 0.0, 3.83, 11.98, 12.52, 3.32, 0.0, 1.34, 4.02, 7.57, 7.57, 6.22, 6.26, 8.94, 8.94, 8.47, 7.13, 2.6, 0.0, -0.95, -0.8, 0.0, 1.34, 2.68, 3.97, 3.98, 3.98, 7.16, 7.16, 7.57, 7.57, 7.57, 7.85, 8.23, 8.23, 8.59, 8.87, 9.19, 9.19, 9.48, 9.48, 9.46, 9.46, 9.42, 9.42, 9.42, 9.37, 9.37, 9.66, 9.3, 9.5, 9.76, 10.02, 9.63, 9.88, 10.4, 10.11, 9.42, 9.01, 8.72, 8.72, 8.72, 8.91, 8.48, 8.64, 8.17, 7.74, 7.84, 7.4, 6.94, 6.61, 6.6, 6.16, 5.7, 5.78, 5.34, 4.92, 4.92, 4.92, 4.47, 3.58, 2.12, 1.26, 0.71, 0.54, -0.0, -0.0, -0.0, -0.95, -1.58, -1.4, -0.57, -1.24, -1.9, -1.86, -1.6, -0.0, -0.0, 0.8, 1.79, 6.06, 11.44, 14.11, 9.39, 4.4, 5.31, 7.98, 9.28, 9.36, 9.39, 9.39, 9.39, 10.71, 10.66, 9.77, 5.32, 3.13, 0.6, -0.0, 0.0, 0.8, 1.7, 3.58, 3.53, 3.53, 6.92, 6.92, 6.92, 7.59, 7.59, 7.59, 7.59, 7.96, 8.87, 8.87, 9.19, 9.19, 9.48, 9.48, 9.46, 9.13, 9.42, 9.42, 9.37, 9.37, 9.02, 9.3, 9.3, 9.58, 9.58, 9.21, 9.63, 9.63, 9.88, 10.0, 9.71, 9.42, 9.01, 8.72, 8.72, 8.48, 8.48, 8.48, 8.17, 8.17, 7.74, 7.4, 7.4, 6.94, 6.61, 6.6, 6.16, 5.7, 5.78, 5.33, 4.92, 4.92, 4.92, 4.47, 3.53, 2.4, 1.24, 1.24, 0.65, 1.16, 0.53, -0.0, -1.9, -1.2, -1.2, -2.8, -1.86, -1.86, -1.86, -1.26, -0.57, 0.8, 4.02, 9.58, 11.87, 12.42, 12.77, 12.29, 12.7, 13.05, 12.07, 10.65, 10.05, 9.62, 9.28, 10.67, 10.67, 8.01, 4.92, 3.53, 1.86, 0.63, 0.45, 0.63, 1.2, 1.34, 2.68, 2.68, 7.19, 7.19, 6.94, 7.33, 7.59, 7.87, 7.87, 8.24, 8.24, 8.87, 8.87, 9.19, 9.48, 9.17, 9.46, 9.46, 9.42, 9.42, 9.37, 9.37, 9.02, 9.3, 9.3, 9.58, 9.21, 9.21, 9.48, 9.48, 9.88, 9.88, 10.11, 9.71, 9.42, 9.01, 8.72, 8.72, 8.48, 8.0, 8.17, 8.17, 7.74, 7.26, 7.4, 6.94, 6.61, 6.61, 6.6, 6.16, 5.78, 5.78, 5.33, 5.36, 4.92, 4.92, 4.44, 3.39, 2.4, 1.9, 1.61, 1.16, 1.16, -0.0, -2.0, -1.7, -1.2, -2.4, -1.86, -1.86, -1.86, -1.26, -0.6, -0.0, 3.6, 10.02, 11.18, 9.36, 9.36, 11.66, 13.96, 15.13, 13.86, 10.08, 6.13, 4.52, 4.3, 4.88, 5.36, 4.47, 3.98, 3.53, 3.07, 1.79, 0.89, 0.63, 0.63, 0.89, 1.79, 1.79, 6.94, 6.94, 6.94, 7.6, 7.6, 7.6, 7.6, 7.96, 8.24, 8.58, 8.58, 9.17, 9.17, 9.17, 9.46, 9.46, 9.42, 9.08, 9.37, 9.37, 9.3, 9.3, 9.3, 8.94, 9.21, 9.21, 9.48, 9.48, 9.1, 9.48, 9.48, 9.71, 9.71, 9.42, 9.01, 8.72, 8.3, 8.42, 8.0, 7.74, 7.69, 7.26, 6.94, 5.77, 6.6, 6.61, 6.61, 6.6, 6.16, 5.78, 5.34, 5.36, 4.92, 4.92, 4.44, 3.87, 3.32, 2.5, 1.88, 1.88, 1.88, 1.2, -0.95, -1.7, -1.34, -2.0, -1.26, -1.24, -1.24, -1.26, -0.8, -0.0, 1.74, 9.8, 11.66, 8.05, 5.34, 8.63, 12.3, 13.79, 12.44, 8.39, 3.39, 1.26, 1.7, 3.13, 4.02, 3.98, 3.98, 3.97, 3.53, 2.68, 1.34, 0.63, 0.63, 0.8, 0.89, 1.34, 6.94, 6.94, 7.22, 7.6, 7.6, 7.6, 7.96, 7.96, 7.96, 8.24, 8.87, 8.87, 8.87, 9.17, 9.46, 9.46, 9.42, 9.08, 9.37, 9.37, 9.3, 9.3, 9.3, 8.94, 9.21, 9.21, 9.1, 9.1, 9.1, 9.35, 9.35, 9.6, 9.6, 9.2, 9.42, 9.01, 8.72, 8.3, 8.0, 8.0, 7.69, 7.26, 6.79, 5.59, 6.16, 7.06, 6.94, 6.47, 6.04, 5.7, 5.7, 5.33, 4.92, 4.92, 4.47, 3.98, 3.53, 2.91, 1.88, 1.88, 2.21, 2.21, 1.26, -0.63, -1.2, -1.26, -1.9, -1.26, -1.24, -0.57, -0.6, -0.0, 0.71, 6.94, 12.56, 10.25, 3.82, 6.01, 9.82, 11.2, 10.18, 7.04, 3.58, 1.34, 0.63, 2.24, 3.53, 3.98, 4.43, 4.43, 3.98, 3.58, 2.24, 1.6, 0.6, 0.95, 0.89, 0.89, 6.94, 6.94, 7.22, 7.6, 7.6, 7.6, 8.24, 8.24, 8.24, 8.24, 8.24, 8.56, 8.56, 8.87, 9.46, 9.13, 9.13, 9.42, 9.37, 9.37, 9.3, 9.3, 8.94, 8.94, 9.21, 8.84, 9.1, 9.1, 9.1, 9.35, 9.35, 8.96, 9.2, 9.2, 9.42, 9.01, 8.91, 8.72, 8.22, 8.0, 7.51, 7.26, 6.79, 6.3, 5.59, 7.06, 6.94, 6.47, 5.99, 5.57, 5.24, 4.89, 4.88, 4.47, 4.02, 4.02, 3.53, 2.8, 2.15, 2.21, 2.21, 2.53, 1.88, -0.0, -1.26, -1.26, -0.8, -1.26, -1.24, -0.71, -0.0, -0.0, 0.45, 2.6, 8.72, 10.91, 8.0, 4.3, 6.06, 6.98, 5.31, 3.97, 3.13, 2.49, 2.4, 3.07, 3.58, 4.43, 4.43, 4.92, 4.47, 4.02, 3.07, 1.26, 0.0, 0.0, 0.0, 0.89, 6.94, 6.94, 7.22, 7.6, 7.6, 7.89, 7.95, 7.95, 8.24, 8.24, 8.24, 8.56, 8.56, 8.85, 8.85, 9.13, 9.13, 9.42, 9.37, 9.37, 9.3, 9.3, 8.94, 9.21, 9.21, 8.65, 8.65, 8.93, 8.93, 9.35, 8.96, 8.96, 8.96, 9.2, 9.2, 9.01, 8.91, 8.51, 8.3, 7.81, 7.93, 7.51, 6.6, 6.51, 6.3, 6.07, 6.47, 6.04, 5.57, 5.09, 4.8, 4.77, 4.44, 4.44, 4.02, 3.58, 3.53, 2.4, 2.4, 2.15, 2.5, 2.21, 1.2, 1.2, -0.0, -0.0, -0.32, -1.2, -1.24, -1.24, -0.57, -0.0, 0.0, 0.45, 2.23, 7.28, 9.9, 8.4, 4.47, 2.68, 1.86, 2.24, 3.82, 5.64, 5.32, 4.47, 4.47, 4.92, 6.26, 6.26, 5.36, 4.43, 3.07, 0.0, -0.95, -0.63, 0.0, 0.0, 6.7, 6.7, 7.22, 7.6, 7.6, 7.95, 7.95, 7.95, 8.24, 8.24, 8.24, 8.24, 8.85, 8.85, 8.85, 8.85, 9.13, 9.42, 9.42, 9.37, 9.02, 9.3, 8.94, 9.21, 9.01, 8.65, 8.65, 8.93, 8.55, 8.55, 8.82, 8.82, 8.82, 8.68, 8.68, 8.68, 8.91, 8.51, 8.51, 8.22, 7.81, 7.51, 7.01, 6.6, 7.01, 7.21, 6.79, 6.04, 5.57, 5.24, 4.77, 4.77, 4.44, 3.98, 4.02, 3.58, 3.07, 2.6, 2.4, 2.4, 2.15, 2.5, 1.88, 1.2, 1.2, 1.2, -0.0, -1.4, -1.24, -1.24, -0.6, -0.0, 0.45, 0.0, 0.95, 3.13, 8.01, 11.23, 10.25, 6.36, 4.66, 6.25, 9.18, 10.37, 8.47, 5.81, 4.43, 5.64, 6.98, 7.01, 6.55, 3.97, 1.2, -1.26, -1.79, -1.34, -1.34, -1.34, 6.96, 6.96, 7.22, 7.6, 7.6, 7.89, 7.95, 8.24, 8.24, 8.24, 7.95, 8.24, 8.24, 8.53, 8.85, 8.85, 9.13, 9.42, 9.42, 9.37, 9.02, 9.3, 8.94, 9.21, 9.01, 8.65, 8.65, 8.93, 8.55, 8.55, 8.82, 8.82, 8.82, 8.43, 8.68, 8.68, 8.28, 8.51, 8.51, 8.22, 8.22, 7.71, 7.51, 7.01, 7.01, 7.01, 6.79, 6.47, 5.57, 5.24, 5.24, 4.77, 4.44, 4.44, 4.02, 3.58, 3.13, 2.6, 2.6, 2.6, 2.23, 1.9, 1.88, 1.2, 1.2, 1.2, -0.0, -1.27, -1.49, -1.24, -0.6, 0.0, 0.0, 0.6, 1.49, 2.86, 5.32, 10.7, 12.87, 12.47, 12.52, 13.23, 13.99, 12.72, 9.15, 4.47, 3.82, 4.09, 5.6, 5.6, 3.82, 1.7, -1.2, -2.17, -2.24, -1.79, -1.79, -1.79, 6.96, 6.96, 7.22, 7.6, 7.6, 7.6, 8.24, 8.24, 8.24, 7.95, 8.24, 8.24, 8.24, 8.24, 8.53, 8.53, 8.53, 9.08, 9.08, 9.37, 9.02, 9.3, 8.94, 9.21, 9.01, 8.65, 8.93, 8.93, 8.55, 8.55, 8.55, 8.82, 8.43, 8.43, 8.68, 8.28, 8.15, 8.4, 8.4, 8.0, 8.22, 7.81, 7.31, 7.31, 7.01, 6.6, 6.79, 6.47, 6.04, 5.57, 5.24, 5.24, 4.88, 4.44, 4.47, 3.58, 3.13, 2.68, 2.68, 2.17, 2.12, 1.86, 1.9, 1.49, 1.0, 1.0, -0.0, -1.24, -1.49, -1.26, -0.63, 0.0, 0.0, 1.24, 1.9, 2.8, 3.97, 8.49, 11.23, 12.08, 13.14, 14.55, 15.44, 12.92, 7.56, 2.91, 2.17, 2.5, 3.07, 2.68, 2.4, -1.79, -2.24, -2.24, -2.24, -2.17, -2.17, -2.17, 6.96, 6.96, 7.22, 7.6, 7.6, 7.6, 7.6, 8.24, 7.95, 7.95, 8.24, 8.24, 8.24, 8.24, 8.53, 8.53, 8.82, 8.82, 8.82, 9.08, 9.02, 9.3, 8.94, 9.01, 9.01, 8.65, 8.93, 8.55, 8.55, 8.55, 8.55, 8.43, 8.43, 8.43, 8.68, 8.15, 8.15, 8.15, 8.4, 8.0, 8.0, 7.81, 7.71, 7.31, 7.01, 6.6, 6.51, 6.3, 5.99, 5.57, 5.57, 5.24, 4.8, 4.88, 4.44, 4.02, 3.58, 3.13, 2.68, 2.68, 2.17, 1.86, 1.9, 1.9, 1.58, -0.0, -0.0, -0.6, -1.26, -1.26, -0.45, 0.0, 0.0, 0.8, 1.49, 1.79, 2.68, 5.81, 8.19, 8.3, 10.24, 13.76, 14.95, 11.73, 5.69, 1.24, 0.0, 0.0, 0.0, 0.45, -1.34, -1.34, -2.24, -2.68, -2.63, -2.6, -2.6, -2.6, 7.22, 7.22, 7.6, 7.6, 7.6, 7.6, 7.6, 7.61, 7.95, 7.95, 8.24, 8.24, 8.24, 8.24, 8.82, 8.82, 8.82, 8.82, 8.82, 8.82, 8.78, 8.78, 8.73, 8.73, 8.65, 8.65, 8.93, 8.55, 8.55, 8.55, 8.82, 8.43, 8.43, 8.27, 8.27, 8.15, 8.15, 8.15, 7.76, 8.0, 8.0, 8.0, 7.71, 7.31, 7.31, 7.01, 6.51, 6.3, 5.81, 5.57, 5.57, 5.24, 5.24, 4.8, 4.44, 3.98, 3.58, 3.58, 3.13, 2.68, 2.17, 2.12, 1.86, 1.9, 1.58, -0.0, -0.0, -0.0, -2.4, -1.34, -0.89, -0.63, 0.0, 0.0, 0.63, 0.89, 1.79, 3.95, 6.0, 5.09, 7.02, 11.88, 14.39, 11.37, 4.43, -0.6, -2.24, -2.68, -2.6, -1.9, -1.24, -1.79, -2.24, -3.07, -3.51, -3.51, -3.51, -3.51, 7.6, 7.6, 7.6, 7.6, 7.6, 7.6, 7.61, 7.61, 7.61, 7.61, 8.24, 8.24, 8.24, 8.53, 8.5, 8.5, 8.5, 8.82, 8.82, 8.5, 8.78, 8.78, 8.73, 8.73, 8.65, 8.65, 8.93, 8.55, 8.55, 8.55, 8.82, 8.43, 8.27, 8.27, 7.9, 8.15, 8.15, 7.76, 7.76, 8.0, 8.0, 7.6, 7.48, 7.71, 7.31, 6.8, 6.6, 6.1, 5.81, 5.81, 5.57, 5.09, 5.24, 4.8, 4.88, 4.44, 3.98, 3.58, 3.13, 3.13, 2.68, 2.17, 1.86, 2.4, 1.9, 1.58, -0.0, -0.0, -1.58, -1.34, -0.89, -0.8, -0.63, 0.0, 0.0, 0.89, 1.34, 2.4, 3.79, 4.43, 5.37, 8.93, 11.54, 9.83, 4.71, -1.2, -3.07, -3.13, -2.53, -1.84, -1.88, -2.4, -2.68, -3.51, -3.95, -3.51, -3.51, -3.51, 7.6, 7.6, 7.6, 7.6, 7.33, 7.61, 7.61, 7.61, 7.61, 7.61, 7.9, 8.24, 8.24, 8.22, 8.5, 8.5, 8.5, 8.5, 8.5, 8.5, 8.78, 8.78, 8.73, 8.73, 8.65, 8.65, 8.65, 8.55, 8.55, 8.55, 8.82, 8.43, 8.27, 8.27, 7.9, 8.15, 8.15, 7.76, 7.76, 7.87, 7.87, 7.48, 7.48, 7.71, 7.31, 7.31, 7.01, 6.51, 6.1, 5.81, 5.4, 5.51, 5.09, 5.24, 4.77, 4.44, 4.44, 3.98, 3.58, 3.13, 3.13, 2.6, 2.17, 2.4, 2.4, 1.2, -0.0, -0.0, -0.0, -0.0, -0.0, 0.0, -0.63, 0.0, 0.45, 0.89, 1.2, 1.58, 2.15, 3.22, 4.43, 6.06, 7.18, 8.53, 6.01, 0.63, -3.13, -4.02, -3.39, -1.88, -1.16, -1.24, -2.24, -2.68, -3.07, -3.13, -3.13, -3.13, 7.6, 7.22, 7.6, 7.33, 7.33, 7.61, 7.61, 7.61, 7.61, 7.61, 7.61, 7.93, 7.93, 8.22, 8.22, 8.5, 8.5, 8.5, 8.5, 8.78, 8.78, 8.45, 8.73, 8.73, 8.65, 8.65, 8.65, 8.55, 8.55, 8.55, 8.43, 8.43, 8.27, 8.27, 7.9, 8.15, 8.15, 7.76, 7.76, 7.61, 7.87, 7.48, 7.48, 7.48, 7.31, 7.31, 7.01, 6.6, 6.51, 6.3, 5.81, 5.57, 5.09, 4.77, 4.77, 4.77, 4.44, 3.98, 3.98, 3.58, 3.13, 2.68, 2.6, 2.6, 2.4, 1.2, 0.45, -0.0, -0.0, 0.6, 0.95, 0.89, 0.89, 0.0, 0.45, 0.45, 0.95, 1.26, 1.24, 2.15, 3.79, 4.01, 4.65, 7.06, 9.08, -0.6, -2.63, -3.82, -4.43, -2.68, -0.57, -0.0, -1.2, -2.24, -2.68, -2.24, -2.24, -2.24, 7.22, 6.96, 6.96, 7.33, 7.33, 7.61, 7.61, 7.61, 7.9, 7.61, 7.61, 7.61, 7.93, 8.22, 8.22, 8.22, 8.22, 8.22, 8.52, 8.78, 8.78, 8.78, 8.73, 8.73, 8.38, 8.65, 8.65, 8.55, 8.55, 8.55, 8.43, 8.27, 8.27, 7.9, 7.9, 8.15, 8.15, 7.76, 7.61, 7.61, 7.48, 7.48, 7.48, 7.48, 7.31, 7.31, 6.8, 7.01, 6.6, 6.1, 6.3, 5.81, 5.57, 5.09, 4.77, 4.77, 4.34, 4.43, 3.98, 3.58, 3.13, 3.13, 2.68, 2.6, 3.07, 2.6, 0.89, 0.0, 0.0, 0.63, 1.2, 1.6, 1.79, 0.89, 0.0, 0.0, 0.63, 0.95, 1.26, 1.49, 2.15, 3.07, 3.79, 6.54, 4.92, 0.6, -1.7, -2.91, -5.44, -4.0, -1.49, 0.0, 0.0, -1.34, -2.24, -1.79, -1.79, -1.79, 6.96, 6.96, 6.96, 6.96, 6.96, 7.61, 7.61, 7.61, 7.61, 7.61, 7.61, 7.61, 8.22, 8.22, 8.22, 8.22, 8.52, 8.52, 8.19, 8.19, 8.45, 8.45, 8.73, 8.73, 8.38, 8.65, 8.65, 8.29, 8.55, 8.55, 8.0, 8.27, 8.27, 7.9, 8.15, 8.15, 8.15, 7.76, 7.61, 7.61, 7.48, 7.48, 7.48, 7.48, 7.08, 7.2, 6.8, 7.01, 6.6, 6.51, 6.3, 5.81, 5.81, 5.09, 4.66, 4.77, 4.34, 4.43, 3.98, 4.02, 3.58, 3.13, 3.13, 3.13, 3.07, 3.07, 1.34, 0.45, 0.45, 0.0, 0.45, 1.34, 1.79, 1.34, 0.0, 0.0, 0.45, 0.95, 1.26, 1.24, 1.61, 2.07, 3.48, 9.72, 4.43, 0.45, 0.45, -1.2, -3.39, -5.69, -2.51, 0.0, 0.0, -1.2, -2.12, -1.7, -1.7, -1.7, 6.96, 6.96, 6.96, 6.96, 7.24, 7.24, 7.33, 7.33, 7.61, 7.61, 7.61, 7.6, 7.6, 7.9, 7.9, 8.19, 8.19, 8.19, 8.19, 8.19, 8.45, 8.45, 8.73, 8.73, 8.38, 8.65, 8.65, 8.29, 8.55, 8.37, 8.0, 8.27, 8.27, 7.9, 7.9, 8.15, 7.76, 7.76, 7.61, 7.61, 7.48, 7.48, 7.48, 7.48, 7.08, 7.2, 6.8, 6.8, 7.01, 6.6, 6.51, 6.3, 5.4, 5.51, 5.09, 4.77, 4.34, 4.44, 4.43, 3.98, 3.58, 3.58, 3.13, 3.13, 3.13, 3.53, 3.58, 1.79, 0.45, -0.89, 0.45, 0.89, 1.34, 0.89, 0.45, 0.0, 0.45, 0.95, 1.26, 1.24, 0.65, 1.16, 7.03, 7.98, 2.91, 0.45, -0.0, -0.0, -1.79, -4.73, -3.43, -0.61, 0.0, -1.24, -1.86, -1.26, -1.26, -1.26, 6.97, 6.97, 6.97, 6.97, 6.97, 6.97, 7.33, 7.33, 7.61, 7.61, 7.32, 7.6, 7.6, 7.9, 8.19, 8.19, 8.19, 8.45, 8.45, 8.19, 8.45, 8.45, 8.45, 8.73, 8.38, 8.65, 8.65, 8.29, 8.37, 8.37, 8.0, 8.27, 8.27, 7.9, 7.9, 8.15, 7.76, 7.76, 7.61, 7.61, 7.48, 7.48, 7.48, 7.48, 7.08, 7.2, 6.8, 6.8, 7.01, 6.6, 6.51, 6.3, 5.81, 5.57, 5.51, 5.09, 4.77, 4.34, 4.44, 4.43, 4.02, 3.58, 3.58, 3.13, 3.58, 3.53, 3.97, 2.6, 0.0, -0.89, 0.0, 0.0, 0.0, 0.0, 0.0, 0.0, 0.0, 0.45, 0.6, 0.71, 0.54, 0.65, 4.46, 6.32, 2.8, 0.0, -0.0, -0.0, -0.57, -3.07, -4.07, -1.27, 0.0, -0.71, -1.24, -1.26, -1.26, -1.26, 6.97, 6.97, 6.97, 6.97, 6.97, 6.97, 6.97, 7.26, 7.32, 7.32, 7.6, 7.6, 7.6, 7.9, 8.19, 8.19, 8.19, 8.19, 8.45, 8.45, 8.45, 8.45, 8.73, 8.73, 8.38, 8.65, 8.65, 8.29, 8.37, 8.37, 8.0, 8.27, 8.27, 7.9, 7.9, 8.15, 7.76, 7.76, 7.61, 7.87, 7.48, 7.48, 7.48, 7.48, 7.08, 7.2, 6.8, 6.8, 6.8, 6.51, 6.51, 6.1, 5.88, 5.81, 5.57, 5.09, 4.6, 4.77, 4.44, 4.44, 4.47, 4.02, 3.58, 3.58, 3.58, 3.58, 3.53, 3.53, 1.79, -0.45, -0.89, -0.45, 0.0, 0.0, 0.45, 0.45, 0.45, 0.0, 0.45, 0.4, -0.0, 0.99, 3.07, 5.05, 4.3, 1.2, -0.63, -0.54, -0.54, -1.79, -4.11, -2.73, 0.0, 0.0, 0.0, -0.63, -0.63, -0.63, 6.97, 6.97, 6.97, 6.97, 6.97, 6.97, 7.26, 6.98, 6.98, 7.27, 7.3, 7.3, 7.3, 7.9, 8.19, 8.19, 8.19, 8.19, 8.45, 8.73, 8.73, 8.73, 8.73, 8.38, 8.38, 8.65, 8.65, 8.08, 8.37, 8.37, 8.0, 8.27, 8.27, 7.9, 7.9, 8.15, 7.76, 7.61, 7.61, 7.87, 7.48, 7.48, 7.48, 7.48, 7.31, 7.2, 6.8, 6.8, 6.8, 6.51, 6.51, 6.1, 6.3, 5.81, 5.99, 5.51, 5.09, 4.77, 4.77, 4.88, 4.44, 4.47, 4.02, 4.02, 3.58, 3.58, 3.58, 3.58, 2.68, 0.0, -0.89, -0.45, 0.45, 0.0, 0.45, 0.89, 0.89, 0.45, 0.45, 0.45, -0.0, 0.89, 2.24, 4.43, 7.12, 3.53, 0.0, -1.24, -0.57, -0.63, -1.9, -3.38, 0.0, 1.49, 0.65, 0.45, 0.45, 0.45, 6.97, 6.97, 6.97, 6.97, 6.97, 6.98, 6.98, 6.98, 7.27, 6.98, 7.3, 7.3, 7.3, 7.9, 8.19, 8.19, 8.19, 8.19, 8.19, 8.73, 8.73, 8.73, 8.38, 8.38, 8.38, 8.65, 8.65, 8.29, 8.37, 8.37, 8.0, 8.0, 8.27, 7.9, 7.9, 8.15, 7.76, 7.61, 7.61, 7.87, 7.48, 7.48, 7.48, 7.48, 7.31, 7.2, 7.2, 6.8, 6.8, 6.28, 6.51, 6.1, 6.3, 5.88, 5.81, 5.57, 5.51, 5.24, 5.24, 4.89, 4.88, 4.44, 4.47, 4.02, 4.02, 3.58, 3.58, 3.58, 3.13, 0.89, 0.0, -0.45, -0.45, 0.0, 0.45, 1.2, 1.2, 1.2, 0.63, 0.0, 0.0, 0.45, 2.12, 3.97, 8.05, 5.81, 1.7, -0.8, -0.95, 0.45, -0.63, -2.07, -0.67, 0.7, 0.7, 0.0, 0.0, 0.0, 6.97, 6.97, 6.71, 6.98, 6.98, 6.98, 6.98, 6.98, 6.98, 6.98, 6.98, 7.3, 7.3, 7.9, 7.59, 7.86, 8.19, 8.19, 8.19, 8.73, 8.73, 8.73, 8.38, 8.38, 8.38, 8.65, 8.65, 8.29, 8.37, 8.37, 8.0, 8.0, 8.27, 7.9, 7.9, 8.15, 7.61, 7.61, 7.61, 7.87, 7.48, 7.48, 7.48, 7.48, 7.08, 7.2, 7.2, 6.8, 6.8, 6.8, 6.51, 6.1, 6.3, 6.23, 5.81, 5.99, 5.57, 5.24, 5.24, 5.24, 4.89, 4.88, 4.44, 4.44, 4.02, 3.54, 3.53, 3.58, 3.58, 3.13, 0.95, -0.63, -0.63, 0.0, 0.0, 0.63, 0.63, 0.89, 0.0, 0.0, 0.0, 0.89, 2.17, 3.97, 8.01, 8.49, 3.53, 0.0, -0.45, 0.0, 0.63, 0.0, 0.0, 0.0, 0.7, 0.63, 0.63, 0.63, 6.98, 6.98, 6.98, 6.98, 6.98, 6.98, 6.98, 6.7, 6.98, 6.98, 6.98, 7.3, 7.59, 7.59, 7.59, 7.59, 7.86, 8.19, 8.19, 8.15, 8.49, 8.73, 8.38, 8.38, 8.44, 8.44, 8.65, 8.29, 8.55, 8.37, 8.0, 8.0, 8.27, 7.9, 7.9, 8.15, 7.76, 7.61, 7.61, 7.61, 7.48, 7.48, 7.48, 7.48, 7.08, 7.2, 7.2, 7.2, 6.8, 6.8, 6.51, 6.1, 6.1, 5.81, 5.81, 5.99, 5.57, 5.57, 5.7, 5.24, 5.24, 4.89, 4.88, 4.44, 4.44, 3.98, 3.53, 3.53, 3.53, 3.58, 2.17, 0.0, -0.63, 0.0, 0.0, 0.0, 0.0, 0.0, 0.0, 0.0, 0.45, 1.2, 2.4, 3.82, 8.01, 9.39, 6.26, 2.63, 0.63, 0.6, 1.26, 0.99, 0.54, 0.0, 0.61, 1.34, 1.34, 1.34, 6.98, 6.98, 6.98, 6.98, 6.7, 6.7, 6.7, 6.98, 6.98, 6.98, 6.98, 7.3, 7.59, 7.59, 7.59, 7.59, 7.86, 7.86, 7.86, 8.15, 8.49, 8.73, 8.38, 8.65, 8.65, 8.44, 8.65, 8.29, 8.55, 8.37, 8.37, 8.0, 8.27, 7.9, 7.9, 8.15, 7.76, 7.76, 7.61, 7.61, 7.48, 7.48, 7.48, 7.48, 7.08, 7.2, 7.2, 7.2, 6.8, 6.8, 6.51, 6.1, 6.1, 5.81, 5.81, 5.81, 5.99, 5.99, 5.57, 5.67, 5.24, 4.8, 4.88, 4.88, 4.44, 4.44, 3.98, 3.53, 3.39, 3.53, 3.07, 1.86, 0.0, -1.34, -0.45, 0.45, 0.0, 0.45, 0.0, 0.0, 0.63, 1.26, 2.4, 3.82, 7.12, 9.39, 8.91, 5.81, 3.58, 2.6, 1.86, 1.86, 1.58, 1.49, 1.9, 2.24, 2.24, 2.24, 6.98, 6.98, 6.98, 6.98, 6.7, 6.7, 6.7, 6.98, 6.98, 6.98, 6.98, 7.3, 7.59, 7.59, 7.59, 7.59, 7.86, 7.86, 7.86, 8.15, 8.49, 8.73, 8.38, 8.65, 8.65, 8.44, 8.65, 8.29, 8.55, 8.37, 8.37, 8.0, 8.27, 7.9, 7.9, 8.15, 7.76, 7.76, 7.61, 7.61, 7.48, 7.48, 7.48, 7.48, 7.08, 7.2, 7.2, 7.2, 6.8, 6.8, 6.51, 6.1, 6.1, 5.81, 5.81, 5.81, 5.99, 5.99, 5.57, 5.67, 5.24, 4.8, 4.88, 4.88, 4.44, 4.44, 3.98, 3.53, 3.39, 3.53, 3.07, 1.86, 0.0, -1.34, -0.45, 0.45, 0.45, 0.45, 0.0, 0.0, 0.63, 1.26, 2.4, 3.82, 6.22, 8.94, 9.81, 8.82, 7.45, 5.36, 4.02, 3.07, 2.8, 2.91, 3.32, 2.68, 2.68, 2.68]}, {"header": {"dx": 0.06612293990616946, "dy": 0.0552356325346848, "nx": 98, "ny": 59, "la1": 35.046912555036876, "la2": 31.78801023549047, "lo1": -121.43107172385933, "lo2": -114.95102361305473, "refTime": "2026041610", "parameterCategory": 1, "parameterNumber": 3}, "data": [-15.74, -14.82, -13.9, -13.09, -11.88, -10.3, -9.1, -7.9, -7.23, -6.41, -5.21, -3.88, -1.7, -0.45, -0.45, -1.34, -2.6, -2.91, -2.53, -2.68, -2.0, -0.76, -0.65, -0.71, -0.71, -1.24, -1.86, -2.12, -2.6, -2.68, -2.6, -1.86, -1.24, -0.65, 0.0, 0.0, 0.0, 0.0, -0.66, 0.0, 0.0, 0.0, -1.05, -3.35, -5.86, -6.9, -8.83, -10.35, -5.4, 1.9, 5.34, 5.43, 5.37, 5.3, 6.32, 6.24, 6.88, 6.31, 6.2, 5.41, 5.52, 4.6, 4.56, 4.74, 4.43, 4.65, 5.3, 4.94, 5.49, 5.52, 5.28, 4.46, 3.64, 2.73, 2.88, 4.03, 3.88, 3.46, 0.0, -0.0, 1.24, 1.24, -0.0, -0.71, -0.71, -0.99, -1.26, -1.7, -1.7, -1.88, -3.64, -4.56, -5.3, -4.46, -4.46, -3.69, -3.0, -2.2, -15.35, -14.82, -14.29, -13.62, -12.42, -11.22, -9.76, -8.55, -7.9, -6.79, -5.59, -2.86, -1.86, -1.2, 0.0, -1.34, -1.79, -2.6, -2.53, -2.51, -2.99, -1.99, -0.76, -0.0, -0.0, -0.57, -0.8, -1.26, -1.86, -2.6, -2.24, -2.12, -1.26, -0.71, 0.0, 0.0, 0.0, -0.72, -0.76, -1.41, -1.66, -2.16, -4.44, -7.73, -10.25, -11.25, -11.95, -7.93, 0.65, 4.93, 5.46, 5.37, 5.59, 5.64, 6.32, 6.53, 6.88, 6.2, 6.2, 5.63, 5.18, 4.83, 5.21, 5.37, 5.37, 5.69, 5.59, 5.21, 5.49, 5.28, 5.52, 4.6, 3.79, 2.88, 2.88, 3.2, 3.78, 3.46, 0.0, -0.0, 1.24, 1.24, -0.0, -0.71, -0.71, -0.99, -1.26, -1.7, -1.7, -1.88, -3.64, -4.56, -5.3, -4.46, -4.46, -3.69, -3.0, -2.2, -15.35, -14.82, -14.29, -13.36, -12.7, -11.88, -10.68, -9.48, -8.18, -7.35, -6.15, -4.94, -2.5, -1.58, -0.6, -0.6, -1.26, -2.24, -3.04, -2.53, -2.79, -3.91, -3.22, -2.0, -0.71, -0.0, -0.0, -0.0, -1.58, -2.23, -3.04, -2.24, -1.79, -0.6, 0.0, 0.0, 0.0, -0.83, -2.12, -3.2, -4.37, -7.15, -9.31, -10.98, -11.92, -11.08, -6.9, 0.0, 4.46, 5.09, 5.37, 5.3, 5.59, 5.59, 6.01, 6.24, 6.42, 6.2, 5.63, 5.41, 5.41, 5.38, 5.59, 6.39, 6.39, 6.68, 6.64, 6.95, 6.58, 6.79, 6.31, 5.52, 3.8, 2.2, 1.41, 1.41, 1.6, 3.11, 0.64, 0.0, 1.24, 1.24, -0.0, -0.59, -0.59, -0.0, -0.57, -1.6, -2.17, -3.48, -4.83, -5.59, -6.01, -6.01, -4.95, -3.22, -2.2, -1.47, -15.21, -14.82, -14.29, -13.75, -13.09, -12.16, -10.96, -9.76, -9.1, -7.9, -6.79, -6.03, -3.45, -2.15, -1.86, -1.26, -1.24, -1.9, -2.6, -2.4, -2.15, -1.8, -3.22, -3.9, -2.29, -0.85, -0.0, -0.0, -0.6, -1.86, -4.15, -5.09, -4.24, -2.24, -1.0, -1.08, -1.14, -2.09, -4.6, -6.31, -8.37, -10.04, -9.6, -7.9, -6.33, -3.78, 0.0, 3.79, 4.56, 4.83, 4.67, 4.83, 4.83, 5.3, 6.32, 6.24, 5.28, 5.41, 5.41, 4.8, 4.6, 5.13, 6.01, 6.7, 7.69, 7.64, 7.64, 7.59, 8.22, 8.19, 7.63, 5.99, 4.6, 2.66, 0.63, -0.66, -1.55, -0.74, 0.77, 0.0, -0.0, -0.0, -0.0, -0.0, -0.0, -0.0, -0.0, -1.79, -2.91, -4.65, -5.21, -5.37, -5.06, -3.16, -1.88, -0.65, -0.7, -0.7, -14.82, -14.82, -14.29, -13.75, -13.36, -12.54, -11.88, -10.41, -9.21, -8.55, -7.35, -6.41, -3.45, -2.4, -2.4, -2.23, -1.9, -1.9, -1.9, -2.24, -2.53, -2.2, -0.87, -1.99, -2.29, -2.32, -0.99, -0.8, -1.2, -1.79, -3.04, -5.59, -6.79, -7.42, -7.06, -6.32, -5.93, -6.4, -8.12, -9.17, -8.46, -6.31, -3.15, -1.49, 0.0, 0.0, 2.23, 3.15, 3.91, 3.91, 4.46, 4.56, 4.56, 5.37, 5.59, 5.38, 4.5, 4.71, 4.8, 4.5, 3.88, 4.56, 6.44, 7.67, 8.67, 8.3, 7.64, 7.64, 8.6, 8.76, 7.79, 7.13, 6.14, 5.09, 2.18, -0.66, -2.98, -2.9, 0.0, 0.0, -0.65, -1.2, -0.0, -0.0, -0.59, -1.0, -1.34, -2.5, -4.46, -5.37, -4.36, -3.43, -2.5, -0.45, 0.0, 0.0, -0.66, -1.52, -14.82, -14.82, -14.29, -14.29, -13.36, -12.82, -12.16, -10.96, -10.13, -9.1, -7.9, -6.95, -3.45, -2.23, -2.23, -2.23, -2.23, -2.53, -3.49, -3.51, -3.83, -4.56, -4.22, -1.98, -1.99, -2.99, -3.49, -3.72, -3.47, -2.68, -2.68, -2.68, -4.47, -7.15, -8.38, -7.98, -8.0, -7.64, -7.9, -6.06, -2.15, -0.85, 0.0, 0.0, 0.0, 0.78, 2.35, 2.99, 3.69, 3.79, 3.2, 3.79, 3.9, 3.9, 4.03, 3.8, 3.8, 3.15, 3.78, 3.69, 3.8, 4.43, 7.03, 8.14, 8.3, 8.3, 7.64, 7.02, 7.35, 7.08, 6.21, 6.43, 6.9, 6.31, 4.81, 2.28, -1.33, -2.4, 0.0, -0.0, -2.15, -2.53, -1.84, -1.27, -2.53, -3.51, -3.39, -4.46, -5.09, -4.81, -3.48, -3.14, -0.45, 0.65, -0.0, -1.2, -2.11, -2.35, -14.29, -14.67, -14.29, -14.29, -13.75, -12.82, -12.54, -11.24, -10.41, -9.48, -8.43, -7.48, -4.22, -1.9, -3.16, -2.23, -2.21, -3.16, -4.46, -5.05, -2.68, -2.53, -4.83, -6.18, -5.69, -5.59, -6.8, -7.74, -6.79, -5.75, -2.68, -1.7, -1.26, -3.22, -5.6, -6.85, -7.89, -6.87, -2.95, -0.63, 0.0, 0.0, 0.0, 0.0, 0.0, 2.26, 4.71, 4.6, 3.91, 3.17, 2.99, 3.11, 3.11, 3.11, 2.8, 2.26, 2.4, 2.4, 2.31, 2.35, 3.0, 4.84, 6.79, 7.35, 7.42, 7.68, 6.88, 5.59, 3.79, 3.7, 3.02, 3.11, 3.69, 3.11, 2.39, 2.39, 0.76, 0.0, 0.0, -1.79, -3.45, -4.09, -3.49, -3.83, -4.66, -5.81, -6.36, -6.0, -4.46, -4.46, -4.27, -3.13, -0.0, -0.0, -1.34, -2.53, -2.88, -2.88, -14.29, -14.29, -14.29, -14.03, -13.75, -13.2, -12.27, -11.62, -10.96, -9.76, -8.96, -8.0, -5.2, -2.86, -3.79, -1.9, -2.53, -3.79, -3.43, -3.35, 0.0, 0.54, -0.63, -3.45, -6.7, -7.4, -8.37, -8.79, -7.4, -6.4, -5.4, -4.47, -4.34, -4.65, -5.09, -5.69, -6.54, -4.8, 0.0, 0.89, 0.89, 0.0, 0.0, 0.0, 0.85, 3.16, 5.43, 5.49, 4.71, 3.99, 2.0, 2.2, 2.88, 3.11, 2.2, 2.2, 2.35, 2.12, 1.65, 2.12, 2.98, 4.4, 5.16, 5.86, 5.82, 6.06, 5.38, 3.27, 0.82, 0.79, 0.77, 0.0, 0.0, -0.74, -0.75, 0.0, 0.73, 2.12, 1.27, -0.65, -3.58, -5.44, -5.44, -5.67, -6.71, -7.12, -6.42, -5.86, -4.09, -4.0, -3.58, -1.13, -0.0, -1.0, -2.24, -3.14, -3.43, -2.66, -14.29, -14.29, -14.29, -14.03, -13.48, -13.2, -12.82, -12.16, -11.24, -10.41, -9.63, -9.2, -7.81, -7.21, -5.75, -4.8, -4.84, -4.46, -3.07, -1.6, 0.0, 0.98, 0.81, -0.71, -2.68, -2.8, -4.0, -6.7, -6.87, -7.2, -7.97, -9.39, -9.77, -8.67, -6.94, -5.43, -4.4, -1.79, 0.0, 0.89, 0.0, 0.0, 0.0, 0.0, 1.34, 2.12, 1.9, 3.22, 4.03, 3.79, 4.22, 2.98, 2.88, 2.29, 2.29, 2.2, 1.52, 1.45, 1.45, 1.6, 3.07, 4.8, 4.66, 4.8, 4.19, 3.9, 3.7, 2.44, 0.0, -0.72, -0.79, -1.32, -1.56, -2.1, -2.1, -1.5, -0.73, 0.0, 0.73, 0.0, -1.9, -3.39, -3.97, -4.47, -4.92, -5.32, -4.73, -3.32, -2.63, -2.4, -1.13, -0.57, -1.13, -2.15, -2.63, -3.16, -3.43, -3.43, -14.29, -14.29, -14.29, -14.03, -13.48, -13.48, -12.82, -12.27, -11.62, -11.34, -10.68, -10.16, -8.96, -9.21, -8.63, -8.56, -8.82, -9.24, -8.67, -7.74, -6.36, -4.0, -1.74, -1.74, -1.58, -0.89, -0.6, -2.21, -6.52, -8.67, -8.94, -8.49, -6.71, -5.36, -5.36, -4.57, -2.23, 0.0, 0.0, 0.0, 0.0, -0.45, 0.0, 0.0, 0.89, 1.2, 1.26, 1.24, 2.3, 4.01, 4.01, 3.64, 3.64, 2.88, 2.29, 2.2, 1.52, 0.74, 0.0, 1.55, 4.46, 6.28, 7.4, 4.84, 4.11, 2.88, 2.99, 2.12, 0.0, -2.11, -3.0, -3.44, -3.46, -2.76, -2.82, -2.76, -3.09, -3.09, -2.11, -0.71, -0.67, -1.9, -2.24, -2.24, -2.12, -2.12, -2.12, -0.89, -0.0, -0.0, -1.13, -1.6, -2.53, -2.91, -3.07, -3.16, -3.72, -3.72, -14.29, -14.29, -14.29, -14.03, -13.48, -13.48, -13.2, -12.65, -11.9, -11.62, -11.34, -10.41, -9.76, -9.35, -8.3, -8.82, -9.75, -10.81, -11.4, -12.02, -11.18, -8.94, -6.21, -3.51, -2.24, 0.0, -0.0, -0.63, -2.23, -4.82, -3.58, -1.79, -0.32, -0.89, -2.24, -2.68, -1.79, 0.0, -0.0, -0.45, -0.89, -0.89, 0.0, 0.0, 2.24, 1.7, 2.12, 2.23, 2.5, 3.22, 3.79, 4.43, 3.9, 3.11, 2.29, 1.52, 0.74, 0.0, 0.0, 1.49, 6.28, 7.89, 6.94, 5.82, 6.07, 5.43, 4.56, 3.2, 0.0, -2.2, -4.65, -4.87, -4.96, -4.12, -3.53, -3.44, -3.32, -3.48, -4.36, -3.7, -1.95, -0.66, -0.57, -0.4, 0.0, 0.54, 0.54, 0.57, 0.6, 0.0, -1.24, -2.79, -3.6, -3.53, -3.53, -3.14, -3.48, -3.78, -13.9, -13.9, -13.75, -13.75, -13.48, -13.48, -12.93, -12.82, -12.27, -11.72, -11.62, -11.07, -10.15, -9.3, -7.85, -6.87, -6.51, -7.23, -8.1, -8.96, -7.52, -4.92, -3.87, -2.54, -0.0, -0.0, -0.0, 1.26, 0.6, -0.71, -1.24, -0.0, 1.24, 1.24, -0.0, -0.6, -0.57, -0.0, -0.57, -0.6, -0.0, -0.0, 0.89, 3.13, 4.02, 2.68, 3.58, 3.13, 3.04, 2.23, 2.21, 2.41, 2.98, 2.88, 2.47, 2.2, 2.26, 0.72, 0.0, 2.68, 8.01, 8.4, 7.47, 6.79, 7.92, 8.55, 8.06, 6.01, 2.2, 0.0, -1.13, -2.66, -3.97, -4.03, -3.09, -3.09, -2.07, -2.5, -3.49, -3.43, -1.13, 0.0, 0.0, 0.0, 0.54, 0.53, 0.0, 0.0, 0.0, 0.0, -0.8, -2.6, -3.32, -3.53, -3.39, -2.79, -3.14, -4.0, -13.75, -13.75, -13.75, -13.75, -13.48, -13.48, -13.48, -12.93, -12.65, -12.27, -11.72, -11.44, -11.07, -10.01, -8.5, -6.97, -5.1, -4.47, -4.47, -5.08, -4.45, -2.58, -1.86, -0.45, -0.0, -0.0, -0.0, 1.2, 1.6, 0.55, -0.0, -0.0, 0.65, 0.65, 0.71, -0.0, -0.0, -0.0, -0.0, -0.0, 0.57, 1.58, 2.17, 2.17, 2.54, 2.54, 2.54, 2.12, 1.79, 1.79, 1.2, 0.57, 0.0, 0.0, 0.0, 0.0, 1.99, 2.26, 0.0, 2.17, 7.11, 8.36, 8.19, 8.46, 8.94, 8.36, 8.67, 8.63, 6.44, 5.09, 3.72, 1.27, -0.61, -2.07, -2.88, -3.0, -1.13, -0.54, -1.0, -0.71, 0.0, -0.54, -1.27, -2.0, 0.0, 0.0, 0.0, -0.59, -0.61, 0.0, 0.0, -0.54, -1.7, -2.68, -2.63, -2.15, -2.4, -3.39, -13.75, -13.75, -13.75, -13.75, -13.75, -13.48, -13.48, -12.93, -12.56, -12.0, -11.72, -11.35, -11.16, -10.59, -10.01, -8.22, -6.35, -5.08, -4.44, -4.44, -3.97, -2.83, -1.71, -0.53, 0.0, 0.0, -0.45, -0.0, -0.0, 0.51, -0.0, -0.0, -0.0, -0.0, -0.0, -0.0, -0.0, -0.0, -0.0, 0.54, 1.24, 1.24, 1.58, 3.72, 4.24, 4.24, 1.7, 1.26, 0.8, 0.95, 0.0, 0.0, -0.8, -0.8, -0.8, -0.57, 0.0, 0.0, 0.0, 2.24, 5.75, 7.15, 8.05, 8.49, 7.15, 6.26, 5.77, 5.86, 6.91, 6.7, 7.33, 6.06, 1.84, -1.2, -2.51, -2.3, -0.61, 0.0, 0.0, 0.0, 0.0, -1.61, -2.48, -3.38, -1.27, -1.13, -1.27, -1.33, -0.61, 0.0, 0.0, 0.0, -0.65, -1.24, -1.26, -0.63, -1.34, -2.63, -13.75, -13.75, -13.75, -13.75, -13.75, -13.48, -13.3, -12.93, -12.93, -12.37, -11.8, -11.44, -10.88, -10.65, -10.06, -9.13, -8.24, -6.98, -5.95, -5.04, -5.26, -4.57, -3.27, -2.3, -1.73, -1.16, -1.13, -1.24, -0.89, -0.0, -0.0, -0.0, -0.0, -0.0, -0.0, 1.58, 1.26, -0.0, -0.0, 0.57, 1.24, 2.23, 2.53, 2.53, 2.53, 3.2, 3.82, 2.53, 2.53, 0.8, -0.0, 0.0, 0.0, 0.0, 0.0, 0.0, -1.6, -2.07, 0.0, 3.39, 3.45, 1.9, 2.54, 2.12, 2.24, 2.24, 1.79, 1.6, 2.6, 4.6, 5.09, 4.29, 2.0, 0.0, -1.7, -0.6, 0.71, 1.2, 0.0, 0.0, -0.65, -2.15, -2.73, -2.73, -2.84, -2.51, -1.8, -1.33, -0.65, 0.0, 0.0, -0.59, -0.7, -0.65, 0.0, -0.63, -1.9, -1.9, -13.36, -13.36, -13.36, -13.2, -13.2, -12.93, -12.93, -12.93, -12.93, -12.37, -11.8, -11.8, -11.23, -10.88, -10.3, -10.06, -8.87, -8.24, -6.97, -6.31, -5.67, -5.23, -4.08, -3.42, -2.28, -1.78, -1.09, -1.12, -1.07, -0.59, -0.71, 0.0, -0.0, -0.0, -0.0, 1.2, 1.2, 1.2, 1.58, 1.6, 1.24, 1.26, 2.21, 2.21, 2.53, 2.53, 2.84, 2.53, 2.8, 2.8, 1.58, 0.0, 0.0, 0.63, 0.63, 0.0, -1.26, -0.85, 0.0, 2.6, 1.79, 2.4, 2.4, 1.58, -0.0, 0.0, 0.0, 0.0, 2.8, 3.58, 2.48, 0.61, 0.0, -0.63, -0.0, 2.17, 3.14, 2.73, 0.61, 0.0, -0.65, -1.4, -2.15, -1.49, -1.4, -1.49, -2.53, -1.4, 0.0, 0.0, -0.61, -1.33, -0.65, 0.0, 0.0, -1.2, -1.2, -1.2, -13.2, -13.2, -13.2, -13.2, -13.2, -12.93, -12.93, -12.93, -12.93, -12.45, -12.09, -11.8, -11.23, -10.88, -10.65, -9.77, -9.48, -8.58, -7.6, -6.96, -5.89, -4.76, -4.08, -2.9, -1.71, -1.71, -1.1, -1.65, -1.69, -1.73, -1.67, -1.27, -0.8, 0.0, 0.0, 1.34, 1.7, 2.12, 1.6, 1.9, 1.4, 0.6, 2.53, 1.26, 2.53, 3.2, 2.8, 2.8, 2.4, 2.4, 2.24, 2.24, 2.24, 2.24, 1.58, 0.0, 0.0, 1.6, 2.53, 2.8, 1.9, 1.79, 2.24, 1.9, 1.58, 0.0, 0.0, 0.0, 0.63, 0.87, 0.0, -1.76, -2.4, -1.7, 0.63, 3.58, 7.03, 6.95, 5.21, 2.07, 1.33, 0.61, -0.61, -1.16, -0.65, 0.0, -1.26, 0.0, -0.57, -1.4, -1.13, -1.13, -1.16, -1.16, -0.7, -1.2, -1.2, -1.2, -13.2, -13.2, -13.2, -13.2, -12.93, -12.93, -12.93, -12.93, -12.73, -12.45, -12.09, -11.87, -11.28, -11.23, -10.65, -9.77, -9.5, -8.87, -7.96, -6.29, -5.4, -5.2, -4.05, -2.9, -1.14, -1.18, -2.33, -2.35, -2.28, -2.3, -2.23, -2.32, -1.76, -0.65, 0.0, 0.45, 1.34, 0.95, 0.63, -0.0, -0.0, -0.0, 0.6, 0.95, 2.4, 2.4, 2.4, 2.24, 2.24, 2.68, 2.68, 2.68, 3.13, 2.68, 2.68, 1.9, 1.4, 2.53, 1.4, 0.0, 0.0, 0.0, 2.24, 3.72, 3.48, 1.26, 0.8, -0.89, -2.6, -2.68, -2.99, -2.0, -1.2, -0.63, 0.6, 3.13, 5.43, 6.79, 7.24, 6.14, 4.56, 2.88, 0.59, -1.0, -0.57, -0.8, -1.24, -0.42, -1.58, -1.88, -1.16, -0.61, -1.16, -1.84, -1.33, -1.33, -1.0, -1.0, -12.82, -12.82, -12.56, -12.56, -12.56, -12.37, -12.37, -12.73, -12.73, -12.45, -12.45, -11.87, -11.52, -10.94, -10.65, -9.85, -9.17, -9.19, -7.33, -5.64, -5.14, -5.8, -5.86, -3.78, -3.06, -3.25, -3.49, -4.0, -3.27, -3.6, -2.92, -2.77, -2.36, -1.23, -0.53, 0.0, 0.8, 0.95, 0.0, 0.0, 0.0, -0.0, -0.0, 1.26, 1.58, 2.24, 2.24, 2.24, 2.24, 2.68, 3.13, 3.58, 3.58, 3.58, 3.39, 3.2, 2.53, 1.13, 0.0, 0.0, 0.0, 0.0, 1.9, 2.23, 3.58, 2.86, 1.26, 0.0, -2.53, -3.0, -1.05, 0.75, 2.28, 2.21, 0.66, 0.0, 0.0, 0.0, 1.54, 2.97, 2.12, 1.35, 0.0, -1.24, -1.86, -2.5, -3.45, -3.72, -2.86, -3.32, -1.86, -1.2, -1.16, -2.23, -1.84, -1.33, -1.61, -1.61, -12.82, -12.65, -12.37, -12.37, -12.37, -12.37, -12.37, -12.37, -12.37, -12.09, -12.09, -11.87, -11.52, -11.28, -10.94, -9.77, -9.46, -9.42, -7.9, -6.31, -6.21, -7.13, -7.57, -7.73, -7.48, -6.14, -5.59, -4.75, -4.1, -3.47, -2.82, -2.36, -1.7, -1.08, -0.57, 0.0, 0.0, 0.0, 0.0, 0.0, 0.0, 0.0, 0.0, 0.89, 1.34, 1.79, 1.79, 1.79, 2.24, 2.68, 3.13, 3.58, 3.58, 3.58, 2.12, 1.86, 3.48, 1.24, 0.0, 0.0, 0.0, 0.0, 1.4, 3.72, 2.21, 1.49, 1.26, 0.89, 0.0, 0.0, 1.47, 3.07, 3.12, 1.59, -0.78, -4.5, -7.07, -6.68, -2.18, 0.0, 0.0, 0.0, 0.0, -1.2, -2.4, -3.32, -3.2, -2.68, -3.6, -3.09, -2.24, -1.26, -1.61, -3.07, -3.07, -2.53, -2.53, -2.53, -12.65, -12.37, -12.37, -12.37, -12.37, -12.37, -12.37, -12.37, -12.37, -12.09, -11.87, -11.87, -11.87, -11.28, -10.99, -10.69, -9.48, -9.13, -9.12, -8.85, -8.66, -8.59, -9.16, -8.87, -8.87, -7.6, -5.1, -4.12, -2.86, -2.23, -1.8, -1.58, -1.23, -1.11, -0.57, 0.0, 0.0, 0.0, 0.0, 0.0, 0.0, 0.0, 0.0, 0.6, 1.2, 1.34, 1.79, 1.79, 2.24, 2.68, 3.13, 3.58, 3.58, 3.58, 4.02, 1.86, 2.5, 1.9, 0.0, -1.34, -0.0, 1.6, 2.23, 1.27, 0.71, 0.57, 0.8, 0.89, 2.23, 3.9, 5.38, 5.29, 3.01, 0.0, -2.34, -6.42, -11.73, -10.48, -7.69, -3.64, -1.3, 0.0, 0.67, 0.66, 0.0, -1.49, -2.12, -1.2, -1.24, -2.49, -2.68, -1.7, -1.58, -2.91, -3.39, -3.2, -2.5, -2.5, -12.65, -12.37, -12.37, -12.37, -12.37, -12.37, -12.37, -12.37, -12.37, -11.87, -11.87, -11.87, -11.87, -11.33, -10.99, -10.72, -10.09, -9.77, -10.09, -10.12, -9.5, -8.87, -7.96, -7.96, -7.6, -6.33, -4.69, -2.77, -1.7, -1.23, -1.27, -1.13, -0.59, -0.59, -0.59, 0.0, 0.0, 0.0, 0.0, 0.0, 0.0, 0.0, 0.0, 0.8, 0.6, 1.2, 1.34, 1.79, 1.79, 2.68, 3.13, 3.13, 3.58, 3.58, 3.58, 3.82, 3.51, 3.51, 2.24, -0.0, -0.0, 1.49, 1.49, 1.0, 0.8, 1.26, 1.26, 1.2, 1.79, 4.34, 6.4, 8.58, 5.0, 0.71, -3.32, -9.46, -12.72, -12.5, -10.38, -7.14, -3.16, 0.0, 1.76, 3.15, 2.84, 1.61, 0.8, 0.0, 0.0, -1.84, -2.53, -1.58, -1.24, -2.4, -3.13, -2.68, -1.7, -1.7, -12.65, -12.65, -12.37, -12.37, -12.37, -12.37, -12.37, -12.16, -12.16, -11.8, -11.52, -11.52, -11.87, -11.58, -11.33, -10.99, -10.4, -9.8, -10.12, -9.84, -8.86, -7.59, -6.58, -6.08, -5.69, -5.26, -4.63, -3.32, -2.37, -1.63, -1.14, -1.19, -0.63, -0.57, -0.59, 0.0, 0.0, 0.0, 0.0, 0.0, 0.0, 0.0, 0.0, 0.57, 0.8, 1.6, 1.79, 1.79, 1.79, 2.24, 2.68, 3.13, 3.13, 3.58, 3.58, 4.02, 3.13, 3.58, 2.24, 0.45, -0.0, 1.26, 1.7, 1.7, 2.12, 2.12, 1.7, 1.34, 1.34, 1.79, 2.24, 3.04, 0.57, -0.0, -2.4, -5.81, -9.62, -11.09, -10.8, -8.71, -4.77, -1.61, 0.53, 2.84, 3.16, 3.49, 3.14, 1.84, 1.23, 1.47, -1.6, -1.88, -1.61, -2.0, -2.24, -1.79, -1.79, -1.79, -12.65, -12.65, -12.37, -12.37, -12.37, -12.37, -12.16, -11.87, -11.52, -11.52, -11.52, -11.52, -11.52, -11.33, -11.33, -10.99, -10.72, -10.4, -10.13, -9.5, -8.86, -7.32, -6.29, -5.26, -5.04, -5.29, -4.6, -3.94, -3.45, -2.83, -1.69, -1.18, -1.12, -0.59, -0.61, 0.0, 0.0, 0.0, 0.0, 0.0, 0.0, 0.0, 0.0, 0.0, 0.57, 1.26, 1.58, 1.58, 2.24, 2.24, 2.68, 2.68, 3.13, 3.13, 3.39, 3.82, 2.6, 2.6, 2.24, 1.6, 0.6, 0.63, 1.34, 2.24, 3.04, 3.04, 2.24, 3.58, 1.34, 0.89, 0.45, -0.96, -0.72, 0.0, -0.0, -2.68, -5.81, -8.67, -9.33, -7.48, -5.32, -3.09, -0.95, 0.0, 1.24, 1.61, 1.84, 1.6, 2.0, 4.36, 0.0, -1.9, -2.15, -2.17, -2.17, -2.17, -2.17, -2.17, -12.82, -12.82, -12.37, -12.37, -12.37, -12.37, -11.87, -11.52, -11.52, -11.52, -11.52, -11.28, -11.28, -11.28, -10.99, -10.72, -10.72, -10.43, -9.82, -9.5, -8.59, -7.57, -6.94, -5.64, -5.02, -4.6, -4.63, -3.94, -3.94, -3.45, -2.97, -1.67, -1.69, -1.18, -0.57, -0.58, 0.0, 0.0, 0.0, 0.0, 0.0, 0.0, 0.0, 0.53, 0.54, 0.71, 1.24, 1.24, 1.86, 2.12, 2.24, 2.68, 2.68, 3.13, 2.8, 3.2, 3.35, 1.86, 1.6, 1.2, 0.85, 1.2, 1.86, 2.68, 3.13, 2.68, 2.24, 2.68, 2.24, 0.0, -1.9, -3.11, -1.07, 0.75, 1.49, 1.13, -0.57, -3.32, -6.4, -4.93, -4.77, -3.98, -3.07, -1.49, 0.0, 0.63, 1.24, 2.21, 3.07, 4.52, 7.03, 0.6, -2.24, -1.7, -1.86, -2.4, -1.58, -1.58, -12.82, -12.82, -12.65, -12.37, -12.37, -12.16, -11.87, -11.52, -11.52, -11.52, -11.28, -11.28, -10.94, -10.94, -10.69, -10.4, -10.4, -9.82, -9.5, -8.87, -8.23, -7.85, -6.92, -6.53, -5.64, -5.02, -4.6, -4.16, -3.94, -3.3, -2.97, -2.3, -1.67, -1.78, -1.07, -0.55, -0.56, -0.57, 0.0, 0.0, 0.0, 0.0, 0.0, 0.59, 0.61, 0.53, 1.2, 1.2, 1.9, 1.86, 2.17, 2.68, 2.68, 2.97, 3.2, 2.53, 2.84, 2.23, 1.6, 0.89, 1.58, 2.68, 2.86, 2.68, 2.24, 2.24, 2.24, 2.68, 1.79, 0.0, -1.86, -2.68, -0.73, 1.5, 4.46, 6.9, 2.72, -2.53, -4.0, -4.0, -4.52, -4.3, -3.53, -1.2, 0.8, 1.79, 2.4, 3.39, 3.98, 3.98, 4.11, 4.37, 0.0, -2.12, -1.86, -1.58, -0.99, -0.99, -12.82, -12.82, -12.65, -12.37, -12.37, -12.16, -11.52, -11.52, -11.28, -11.28, -10.94, -10.94, -10.69, -10.69, -10.36, -9.8, -9.8, -9.82, -9.21, -8.87, -8.23, -7.85, -7.19, -6.53, -5.86, -5.23, -4.57, -4.12, -3.45, -3.49, -2.97, -2.83, -2.3, -1.67, -1.67, -1.12, -1.14, -1.07, -0.55, -0.56, -0.57, 0.0, 0.0, 0.0, 0.57, 0.59, 1.16, 1.16, 1.2, 1.24, 1.86, 2.24, 2.68, 3.07, 1.86, 1.26, 1.6, 1.41, 0.54, 0.57, 1.34, 2.23, 4.0, 2.8, 4.02, 1.79, 1.79, 0.89, 0.0, -0.63, -1.86, -2.86, -2.29, 0.0, 4.4, 6.87, 6.05, 0.0, -3.53, -3.82, -4.0, -4.52, -3.13, -0.0, 1.16, 1.86, 2.68, 3.53, 3.98, 3.58, 2.63, 2.51, 3.38, 0.0, -1.2, -0.89, -0.89, -0.89, -12.27, -12.27, -12.27, -12.27, -12.0, -11.8, -11.52, -11.52, -11.28, -10.94, -10.69, -10.36, -10.36, -10.09, -10.09, -10.09, -9.8, -9.5, -9.21, -8.87, -8.23, -7.85, -7.19, -6.53, -5.86, -5.64, -5.23, -4.76, -4.08, -3.61, -2.8, -2.83, -2.3, -2.3, -1.67, -1.67, -1.2, -1.14, -1.16, -0.55, -0.56, -0.57, 0.0, 0.0, 0.0, 0.55, 0.63, 0.59, 1.16, 1.2, 1.26, 2.24, 2.68, 3.07, 2.91, 1.26, 1.4, 1.27, 0.65, 1.2, 1.49, 1.79, 1.86, 1.86, 2.12, 4.02, 1.7, 0.0, -1.34, -1.2, -1.86, -2.53, -3.48, -2.15, -0.59, 0.0, 1.44, 0.57, -2.4, -3.32, -3.14, -5.93, -4.6, -0.57, 0.61, 1.16, 2.5, 3.13, 3.07, 2.4, 1.2, 0.54, 3.69, 2.66, 0.63, 0.0, 0.0, 0.0, -12.54, -12.54, -12.27, -12.27, -12.27, -11.8, -11.8, -11.28, -10.94, -10.94, -10.36, -10.36, -9.77, -9.77, -9.77, -9.77, -9.19, -9.5, -8.87, -8.59, -8.23, -7.59, -7.19, -6.53, -6.29, -5.64, -5.44, -5.23, -4.57, -3.91, -3.45, -2.8, -2.28, -2.3, -2.3, -1.67, -1.78, -1.14, -1.07, -1.16, -0.56, -0.57, -0.58, 0.0, 0.0, 0.54, 0.61, 0.0, 0.0, 0.65, 0.8, 1.79, 2.24, 2.63, 3.07, 2.49, 2.4, 2.23, 1.2, 1.2, 1.58, 1.2, 0.89, 0.89, 1.79, 3.13, 3.07, 0.63, -1.34, -1.34, -1.26, -1.33, -2.11, -4.43, -7.28, -6.64, -2.99, -0.61, -0.61, -2.15, -2.53, -5.37, -5.35, -3.07, -0.0, 1.16, 1.84, 1.24, 0.89, 0.63, 0.0, 0.0, 0.0, 2.66, 2.66, 1.98, 1.35, 1.35, -12.16, -12.16, -12.16, -11.72, -12.09, -11.8, -11.8, -10.94, -10.94, -10.36, -10.36, -9.77, -9.77, -9.77, -9.77, -9.48, -9.19, -9.19, -8.87, -8.87, -7.96, -7.59, -6.94, -6.94, -6.29, -5.86, -5.2, -5.23, -4.57, -3.91, -3.61, -3.45, -2.93, -2.8, -2.3, -2.3, -1.67, -1.69, -1.14, -1.16, -1.18, -1.2, -0.57, -0.53, 0.0, 0.0, 0.0, 0.0, 0.0, 0.0, 0.0, 0.95, 1.79, 2.6, 2.6, 3.07, 3.32, 2.84, 1.2, 0.76, 0.54, -0.0, 0.0, -0.0, 2.6, 3.13, 3.58, 2.68, 0.0, -0.89, -1.2, -0.65, 0.0, -1.52, -7.18, -9.23, -7.08, -3.6, -1.3, -1.27, -2.23, -5.93, -6.01, -4.75, -1.84, 0.32, 0.53, -0.0, -0.0, -0.63, -0.89, -0.32, 0.0, 0.63, 1.98, 1.93, 2.12, 2.12, -12.16, -12.16, -11.99, -11.72, -11.72, -11.72, -11.23, -11.23, -10.65, -10.36, -10.36, -9.77, -9.77, -9.77, -9.48, -9.48, -9.48, -8.58, -8.58, -8.24, -8.24, -7.6, -6.94, -6.94, -6.29, -5.86, -5.2, -4.76, -3.91, -3.91, -3.91, -3.42, -3.42, -2.93, -2.8, -2.3, -2.3, -1.78, -1.69, -1.16, -1.18, -1.1, -1.12, -0.58, -0.59, 0.0, 0.0, 0.0, 0.0, 0.0, 0.0, 0.0, 1.2, 2.17, 2.6, 3.07, 3.32, 3.07, 2.23, 0.65, -0.0, -0.57, -0.8, 1.24, 2.23, 2.4, 2.6, 2.24, 1.58, 0.0, -0.6, 0.0, 0.7, 2.95, 0.0, -5.51, -8.46, -6.79, -5.38, -2.99, -2.73, -3.35, -5.29, -4.1, -2.8, -0.57, 0.0, -0.0, -0.0, -0.0, -0.0, -0.0, 0.0, 0.0, 0.61, 0.64, 1.26, 1.26, -11.62, -11.62, -11.62, -11.62, -11.35, -11.16, -11.16, -10.88, -10.65, -10.65, -9.77, -9.77, -9.77, -9.48, -9.48, -9.17, -8.87, -8.87, -8.54, -8.24, -7.6, -7.6, -6.96, -6.96, -6.29, -5.64, -5.2, -4.57, -3.78, -3.94, -4.12, -3.91, -3.61, -3.45, -2.8, -2.8, -2.3, -2.19, -1.78, -1.81, -1.16, -1.18, -1.2, -1.12, -1.14, -1.14, -1.14, -0.59, 0.0, 0.0, 0.0, 0.0, 0.57, 1.2, 1.79, 2.6, 3.07, 2.91, 3.07, 1.13, -0.54, -1.24, -0.0, 1.86, 2.23, 2.23, 1.86, 0.95, 0.63, 0.0, 0.0, 0.0, 0.0, 1.01, 2.33, -0.74, -5.3, -4.46, -3.48, -3.47, -1.98, -1.13, -1.16, -1.26, -1.2, -0.56, 0.0, -0.8, -0.0, -0.0, 0.54, -0.0, 0.0, 0.0, 0.0, 0.7, 1.19, 1.19, -11.88, -11.88, -11.62, -11.44, -11.44, -11.16, -11.16, -10.65, -10.65, -10.06, -9.77, -9.77, -9.77, -9.48, -9.17, -8.87, -8.87, -8.24, -8.24, -7.95, -7.61, -7.61, -6.96, -6.96, -6.31, -5.89, -5.67, -5.23, -4.57, -3.78, -4.16, -3.94, -3.45, -3.3, -2.8, -2.97, -2.3, -2.3, -2.33, -1.69, -1.71, -1.73, -1.1, -1.12, -1.12, -1.14, -1.14, -0.53, 0.0, 0.0, 0.0, 0.0, 0.0, 0.71, 1.2, 1.79, 2.24, 2.63, 3.07, 2.4, -0.0, -0.0, 1.58, 1.7, 2.23, 2.23, 1.86, 1.26, 0.0, 0.0, 1.26, 1.34, -0.89, -2.3, -1.5, 0.0, -1.33, -0.89, 0.0, 0.0, 0.69, 0.69, 0.69, 0.0, 0.0, 0.0, -0.56, -0.59, -0.65, 0.0, 0.95, 0.4, 0.0, 0.0, 0.0, 0.66, 0.57, 0.57, -11.34, -11.34, -11.07, -11.07, -11.07, -10.87, -10.59, -10.59, -10.3, -10.06, -9.77, -9.77, -9.48, -9.48, -8.87, -8.87, -8.24, -8.24, -8.24, -7.61, -7.61, -7.24, -6.97, -6.7, -6.31, -5.89, -5.67, -5.23, -5.2, -4.76, -4.12, -3.94, -3.49, -3.49, -3.49, -2.97, -2.83, -2.3, -2.33, -2.21, -1.81, -1.71, -1.73, -1.1, -1.2, -1.12, -1.14, -0.58, -0.53, 0.0, 0.0, 0.0, 0.0, 0.0, 0.71, 1.26, 2.12, 2.17, 2.68, 2.68, 0.45, 0.95, 1.58, 2.8, 1.7, 1.86, 1.9, 1.24, 0.8, 0.89, 1.79, 1.6, 0.0, -5.3, -6.1, -2.35, 0.0, 2.2, 3.32, 2.9, 1.43, 0.67, 0.0, 0.0, 0.0, -0.6, -1.18, -1.15, -0.67, 0.0, 1.2, 0.89, 0.0, -0.4, -0.57, 0.0, 0.59, 0.59, -10.96, -10.96, -10.96, -10.51, -10.51, -10.51, -10.51, -10.23, -10.06, -10.06, -9.77, -9.77, -9.48, -9.48, -8.87, -8.56, -8.24, -8.24, -7.61, -7.61, -7.33, -6.97, -6.97, -6.58, -6.58, -6.33, -5.67, -5.67, -5.23, -5.0, -4.57, -4.12, -3.94, -3.49, -3.49, -2.83, -2.83, -2.83, -2.33, -2.33, -2.21, -1.71, -1.71, -1.73, -1.1, -1.2, -1.12, -1.14, -0.58, -0.59, 0.0, 0.0, 0.0, 0.0, 0.59, 1.2, 1.86, 1.86, 2.6, 2.91, 2.63, 1.34, 1.9, 2.4, 2.4, 1.4, 1.24, 1.24, 1.24, 1.26, 1.7, 1.6, 0.0, -2.21, -3.96, -1.55, 2.25, 5.38, 5.55, 3.07, 0.0, -1.33, -2.15, -2.06, -1.43, -1.12, -1.12, -0.73, 0.0, 0.59, 1.24, 0.63, 0.0, -0.63, -0.6, 0.0, 0.0, 0.0, -10.79, -10.79, -10.41, -10.15, -10.51, -10.3, -10.3, -10.01, -10.01, -10.06, -10.06, -9.77, -9.48, -9.17, -8.87, -8.87, -8.24, -8.24, -7.61, -7.61, -7.33, -6.97, -6.97, -6.58, -6.33, -6.33, -5.92, -5.92, -5.23, -5.23, -4.76, -4.57, -4.12, -3.94, -3.49, -3.49, -2.83, -2.86, -2.33, -2.33, -2.21, -2.23, -1.71, -1.73, -1.1, -1.1, -1.2, -1.12, -0.58, -0.58, -0.59, 0.0, 0.0, 0.0, 0.55, 1.13, 1.2, 1.9, 2.15, 2.91, 2.91, 2.68, 1.0, 0.57, 0.6, 1.2, 1.24, 1.24, 1.24, 1.26, 1.2, 1.79, 1.8, 2.31, 0.0, -0.72, 0.72, 3.11, 3.1, 1.44, 0.0, -2.02, -2.72, -1.94, -1.23, -0.61, 0.0, 0.0, 0.57, 0.59, 0.61, 0.0, 0.0, -0.63, -0.63, 0.0, 0.0, 0.0, -10.41, -10.41, -10.41, -9.94, -9.94, -9.94, -9.94, -9.66, -10.01, -9.72, -9.72, -9.17, -9.17, -9.17, -8.87, -8.87, -8.24, -7.95, -7.61, -7.61, -6.97, -6.97, -6.97, -6.71, -6.33, -6.33, -5.92, -5.92, -5.69, -5.02, -5.02, -4.57, -4.57, -4.12, -3.94, -3.49, -3.32, -3.01, -2.86, -2.21, -2.37, -2.23, -1.73, -0.72, -1.2, -1.1, -1.1, -1.2, -1.12, -0.58, -0.53, 0.0, 0.0, 0.0, 0.55, 1.11, 1.33, 1.88, 2.5, 2.5, 2.5, 2.4, 0.95, 0.57, -0.0, 1.0, 1.26, 1.86, 1.86, 1.26, 1.6, 1.79, 2.6, 4.36, 3.11, 0.0, -2.29, -2.35, -2.31, -1.38, -1.38, -1.29, -1.13, -1.26, -0.57, 0.0, 0.0, 0.57, 0.57, 0.66, 0.59, 0.0, 0.0, -0.63, -0.63, -0.4, 0.0, 0.0, -10.41, -10.41, -10.23, -9.94, -9.94, -9.94, -9.66, -9.66, -9.66, -10.01, -9.46, -9.46, -9.46, -9.17, -8.87, -8.87, -8.24, -7.95, -7.61, -7.61, -6.97, -6.97, -6.97, -6.71, -6.33, -6.33, -5.69, -5.69, -5.69, -5.26, -5.26, -4.8, -4.8, -4.6, -4.12, -3.94, -3.49, -3.32, -2.86, -2.86, -2.37, -2.23, -2.26, -1.6, -1.12, -1.18, -1.73, -1.76, -1.65, -1.14, -1.14, -0.59, 0.0, 0.0, 0.0, 0.57, 0.59, 1.16, 2.5, 2.5, 2.21, 2.21, 1.26, 0.63, 0.6, 1.26, 1.9, 1.26, 1.86, 1.7, 1.2, 1.34, 2.12, 3.09, 4.71, 3.16, -1.27, -6.01, -7.02, -5.6, -3.39, -1.28, 0.0, 0.0, 0.63, 0.0, 0.59, 0.57, 0.63, 0.63, 0.57, 0.0, 0.0, -0.8, -1.2, -0.95, 0.0, 0.0, -10.41, -10.41, -10.23, -9.94, -9.94, -9.94, -9.42, -9.42, -9.42, -9.42, -9.42, -9.13, -9.13, -9.46, -8.87, -8.56, -8.56, -8.24, -7.61, -7.61, -6.97, -6.97, -6.71, -6.71, -6.33, -6.08, -5.69, -5.69, -5.69, -5.26, -5.26, -5.04, -4.6, -4.6, -4.12, -3.94, -4.16, -3.49, -3.52, -2.86, -2.89, -2.23, -2.26, -2.29, -1.6, -1.18, -1.73, -1.76, -1.8, -1.67, -1.16, -0.54, -0.61, 0.0, 0.0, 0.0, 0.59, 1.4, 1.61, 2.21, 2.21, 2.53, 2.5, 1.34, 1.26, 1.26, 0.4, 1.26, 1.86, 2.12, 1.79, 0.89, 0.0, 0.65, 5.45, 7.79, 4.0, -1.23, -5.3, -5.59, -3.32, -0.66, 0.0, 1.0, 1.2, 0.61, 0.0, 0.63, 0.63, 0.0, 0.0, 0.0, -0.61, -1.26, -1.34, -0.89, 0.0, 0.0, -10.41, -10.41, -10.23, -9.94, -9.94, -9.71, -9.08, -9.08, -9.42, -9.42, -9.42, -9.13, -9.13, -8.85, -8.85, -8.56, -8.56, -8.24, -7.61, -7.61, -6.97, -6.97, -6.71, -6.33, -6.33, -6.34, -6.34, -5.95, -5.95, -5.26, -5.04, -5.04, -5.04, -4.6, -4.6, -3.94, -4.16, -3.97, -3.32, -3.35, -3.05, -2.89, -2.75, -2.96, -2.29, -1.52, -1.76, -1.65, -1.67, -1.7, -1.07, -1.19, -0.55, -0.55, 0.0, 0.0, 0.59, 1.2, 1.2, 1.61, 1.88, 2.21, 2.4, 2.4, 2.24, 1.79, 0.32, 2.4, 1.86, 1.86, 1.7, 0.89, 0.0, 0.0, 1.49, 5.2, 6.09, 3.06, 0.0, -1.61, -1.24, 0.0, 1.27, 1.41, 0.67, 0.0, 0.0, 0.0, 0.0, 0.0, 0.0, -0.63, -0.61, -1.34, -0.95, -0.63, 0.0, 0.0, -10.04, -10.04, -10.23, -9.94, -9.94, -9.08, -9.08, -9.08, -9.42, -9.42, -9.42, -9.42, -8.85, -8.85, -8.85, -8.85, -8.56, -8.24, -8.24, -7.61, -7.33, -6.97, -6.71, -6.33, -6.61, -6.34, -6.34, -5.95, -5.7, -5.7, -5.29, -5.29, -5.29, -4.63, -4.63, -4.63, -4.16, -3.97, -3.97, -3.52, -3.35, -2.89, -2.92, -2.75, -2.92, -2.4, -2.26, -1.65, -1.67, -1.16, -1.19, -1.19, -0.55, -0.57, 0.0, 0.0, 0.61, 0.65, 1.2, 1.2, 1.61, 1.88, 2.5, 2.4, 2.4, 2.4, 2.68, 2.8, 1.86, 1.86, 1.2, 0.45, 0.0, -0.45, -0.95, 0.0, 0.73, 2.99, 3.16, 2.12, 2.66, 3.47, 3.53, 2.76, 0.65, 0.0, -0.63, -1.41, -1.55, -1.4, -1.45, -0.66, -0.6, -1.26, -0.0, -0.0, -0.0, -0.0, -9.86, -9.86, -10.23, -9.94, -9.94, -9.71, -9.08, -9.42, -9.42, -9.42, -9.08, -8.82, -8.82, -8.53, -8.85, -8.85, -8.56, -8.24, -8.24, -7.61, -7.33, -6.97, -6.71, -6.33, -6.61, -6.34, -6.34, -5.95, -5.7, -5.7, -5.29, -5.29, -5.29, -5.06, -4.63, -4.63, -4.42, -3.97, -3.97, -3.52, -3.52, -3.56, -2.89, -2.92, -2.92, -2.92, -2.26, -1.76, -1.67, -1.16, -1.16, -1.19, -0.55, -0.55, 0.0, 0.0, 0.0, 0.65, 0.65, 0.65, 1.49, 1.9, 2.5, 2.4, 2.4, 2.4, 3.13, 3.82, 2.23, 1.86, 1.2, 0.0, -0.89, -1.2, -2.23, -2.15, -0.67, 0.76, 3.78, 7.01, 8.61, 8.35, 7.0, 4.24, 2.11, 0.0, -1.27, -2.73, -2.8, -2.8, -1.27, -0.57, -0.6, -0.54, -0.0, -0.0, -0.0, -0.0, -9.86, -9.86, -10.23, -9.94, -9.94, -9.94, -9.42, -9.42, -9.42, -9.08, -8.82, -8.82, -8.82, -8.82, -8.53, -8.53, -8.53, -7.95, -7.95, -7.61, -7.33, -6.97, -6.71, -6.33, -6.61, -6.34, -5.95, -5.95, -5.7, -5.7, -5.7, -5.29, -5.06, -5.06, -4.63, -4.42, -4.66, -4.2, -4.2, -4.0, -3.52, -3.35, -3.37, -3.37, -2.92, -2.75, -2.26, -1.76, -1.65, -1.67, -1.16, -1.16, -0.61, -0.55, 0.0, 0.0, 0.0, 0.0, 0.0, 0.54, 0.71, 1.24, 1.9, 2.23, 2.0, 2.0, 2.68, 1.86, 2.23, 1.26, 0.63, 0.0, -1.34, -1.86, -1.9, -1.4, -0.66, 0.0, 2.99, 6.79, 10.05, 10.39, 8.09, 5.02, 2.75, 1.16, -0.54, -1.88, -1.84, -1.61, -1.2, -0.0, -0.0, -0.0, -0.0, -0.54, -0.54, -0.54, -9.86, -9.86, -10.23, -9.94, -9.94, -9.94, -9.94, -9.42, -9.08, -9.08, -8.82, -8.82, -8.82, -8.82, -8.53, -8.53, -8.24, -8.24, -8.24, -7.95, -7.33, -6.97, -6.71, -6.61, -6.61, -6.34, -5.95, -5.7, -5.7, -5.7, -5.7, -5.06, -5.06, -5.06, -4.63, -4.66, -4.66, -4.66, -4.2, -4.0, -4.0, -3.35, -3.56, -3.37, -2.92, -2.75, -2.96, -2.29, -1.8, -1.67, -1.67, -1.16, -1.07, -0.61, -0.55, 0.0, 0.0, 0.0, 0.0, 0.0, 0.54, 1.24, 1.9, 1.9, 1.58, 1.79, 1.79, 1.2, 1.26, 1.26, -0.0, -0.45, -1.34, -1.6, -0.99, 0.0, 0.0, 0.0, 2.23, 5.28, 8.66, 9.17, 7.08, 5.52, 3.55, 1.86, 0.0, -0.45, -0.45, 0.0, -0.0, -0.0, -0.0, -0.0, -0.53, -0.65, -0.65, -0.65, -10.23, -10.23, -9.94, -9.94, -9.94, -9.94, -9.94, -9.37, -9.08, -9.08, -8.82, -8.82, -8.82, -8.82, -8.24, -8.24, -8.24, -8.24, -8.24, -8.24, -7.61, -7.61, -6.98, -6.98, -6.34, -6.34, -5.95, -5.7, -5.7, -5.7, -5.29, -5.06, -5.06, -5.32, -5.32, -4.66, -4.66, -4.66, -4.44, -4.0, -4.0, -4.0, -3.56, -3.37, -3.37, -2.92, -2.96, -2.29, -2.32, -1.67, -1.67, -1.16, -1.16, -1.07, -0.55, -0.57, 0.0, 0.0, 0.0, 0.0, 0.54, 0.71, 1.24, 1.9, 1.58, 1.34, 1.79, 1.79, 1.2, -0.0, -0.0, -0.63, -0.89, -0.89, -0.63, 0.0, 0.0, 0.79, 3.0, 4.36, 6.24, 7.13, 7.2, 7.11, 4.43, 1.2, -0.0, -0.0, 0.65, 1.9, 1.86, -0.0, -0.0, -0.61, -0.7, -0.7, -0.7, -0.7, -9.94, -9.94, -9.94, -9.94, -9.94, -9.94, -9.37, -9.37, -9.37, -9.37, -8.82, -8.82, -8.82, -8.53, -7.93, -7.93, -7.93, -8.24, -8.24, -7.93, -7.61, -7.61, -6.98, -6.98, -6.34, -6.34, -5.95, -5.7, -5.7, -5.7, -5.29, -5.06, -5.32, -5.32, -5.08, -4.66, -4.66, -4.44, -4.44, -4.0, -4.0, -3.8, -4.03, -3.56, -3.37, -3.4, -2.75, -2.77, -2.32, -2.32, -1.67, -1.7, -1.16, -1.07, -0.61, -0.55, -0.57, 0.0, 0.0, 0.0, 0.0, 0.54, 1.24, 1.2, 1.9, 1.58, 1.79, 1.79, 1.58, -0.0, -0.0, -0.4, -0.63, -0.45, 0.0, 0.0, 0.0, 1.2, 3.79, 4.43, 5.37, 5.95, 8.46, 9.13, 5.38, 0.6, -0.61, -0.0, 2.53, 3.07, 2.5, 1.2, -0.0, -0.7, -0.79, -0.7, -0.7, -0.7, -9.94, -9.94, -9.94, -9.94, -9.59, -9.37, -9.37, -9.37, -9.37, -9.37, -9.12, -8.82, -8.82, -8.22, -7.93, -7.93, -7.93, -7.93, -7.93, -7.93, -7.61, -7.61, -6.98, -6.98, -6.34, -6.34, -6.34, -5.7, -5.7, -5.7, -5.29, -5.06, -5.32, -5.32, -5.08, -4.66, -4.66, -4.44, -4.44, -4.24, -4.24, -4.03, -4.03, -3.56, -3.37, -3.37, -2.92, -2.96, -2.77, -2.32, -2.16, -1.84, -1.7, -1.16, -1.19, -0.55, -0.55, -0.57, 0.0, 0.0, 0.0, 0.65, 0.54, 1.2, 1.2, 0.6, 0.89, 0.89, 1.34, 0.89, 0.45, 0.0, -0.63, -0.45, 0.0, 0.0, 0.6, 1.58, 2.86, 4.84, 4.43, 5.3, 7.97, 8.53, 5.35, 0.63, -0.0, -0.0, 1.13, 2.5, 2.91, 1.86, -0.0, -0.0, -0.61, -0.0, -0.0, -0.0, -9.94, -10.23, -9.94, -9.59, -9.59, -9.37, -9.37, -9.37, -9.37, -9.37, -8.78, -8.5, -8.5, -8.22, -8.22, -7.93, -7.93, -7.93, -7.93, -7.61, -7.61, -7.32, -6.98, -6.98, -6.34, -6.34, -6.34, -5.7, -5.7, -5.7, -5.06, -5.06, -5.32, -5.32, -5.08, -4.66, -4.66, -4.44, -4.44, -4.69, -4.24, -4.03, -4.03, -4.03, -3.37, -3.37, -2.92, -2.75, -2.96, -2.29, -2.32, -1.67, -1.7, -1.19, -1.19, -1.19, -0.55, -0.57, -0.57, 0.0, 0.0, 0.0, 0.65, 0.65, 1.2, 0.6, 0.0, 0.45, 1.34, 1.2, 0.95, 0.0, 0.0, -0.89, 0.0, 0.0, 0.95, 1.26, 1.86, 2.86, 3.79, 4.81, 5.43, 5.49, 3.78, -1.2, -0.53, -1.27, -0.63, -0.0, 1.7, 1.34, 0.6, -0.0, -0.0, -0.0, -0.0, -0.0, -10.23, -9.86, -9.86, -9.59, -9.59, -9.37, -9.37, -9.37, -9.12, -8.78, -8.78, -8.78, -8.5, -8.22, -8.22, -8.22, -8.22, -8.22, -7.91, -7.61, -7.61, -7.61, -6.98, -6.98, -6.7, -6.34, -6.34, -5.7, -5.7, -5.7, -5.06, -5.32, -5.32, -5.08, -5.08, -4.66, -4.66, -4.44, -4.69, -4.69, -4.03, -4.03, -4.03, -4.03, -3.37, -3.37, -3.4, -2.92, -2.75, -2.77, -2.29, -2.32, -1.67, -1.7, -1.19, -1.19, -1.08, -0.63, -0.57, 0.0, 0.0, 0.0, 0.0, 0.65, 0.61, 0.65, 0.0, 0.0, 0.0, 0.63, 0.6, 0.8, 0.0, 0.0, 0.0, 0.0, 0.63, 0.95, 1.26, 2.23, 2.86, 3.84, 3.79, 2.9, 0.0, -1.2, -0.57, -1.16, -2.04, -2.0, -0.99, 0.0, 0.0, -0.0, -0.0, -0.0, -0.0, -0.0, -9.86, -9.86, -9.86, -9.86, -9.86, -9.37, -9.37, -9.37, -8.78, -8.78, -8.78, -8.78, -8.22, -8.22, -8.22, -8.22, -7.91, -7.91, -7.6, -7.6, -7.32, -7.32, -6.98, -6.98, -6.7, -6.34, -6.34, -6.08, -5.7, -5.7, -5.72, -5.32, -5.32, -5.08, -4.66, -4.66, -4.66, -4.44, -4.69, -4.69, -4.03, -4.03, -4.03, -4.03, -3.81, -3.6, -3.4, -2.92, -2.75, -2.96, -2.29, -2.32, -2.32, -1.7, -1.55, -1.19, -1.08, -0.63, -0.57, 0.0, 0.0, 0.0, 0.0, 0.0, 0.61, 0.61, 0.0, 0.0, 0.0, 0.0, 0.0, 0.0, 0.0, 0.0, 0.0, 0.0, 0.0, 0.95, 1.26, 1.86, 2.15, 3.45, 3.48, 1.5, 0.63, 0.0, 0.0, 0.6, -1.13, -3.55, -3.14, -2.24, -1.34, -0.6, -0.71, -0.57, -0.57, -0.57, -9.86, -9.86, -9.86, -9.86, -9.66, -9.66, -9.02, -9.02, -8.78, -8.78, -8.78, -8.19, -8.19, -7.9, -7.9, -7.6, -7.6, -7.6, -7.6, -7.6, -7.32, -7.32, -6.98, -6.98, -6.7, -6.34, -6.34, -6.08, -5.7, -5.98, -5.72, -5.32, -5.32, -5.08, -5.08, -4.66, -4.44, -4.44, -4.69, -4.69, -4.03, -4.03, -4.03, -4.03, -3.81, -3.6, -3.4, -3.4, -2.92, -2.75, -2.96, -2.29, -2.16, -1.84, -1.7, -1.19, -1.08, -0.55, -0.63, -0.57, 0.0, 0.0, 0.0, 0.0, 0.0, 0.59, 0.0, 0.0, 0.0, -0.0, 0.0, 0.0, 0.0, 0.0, 0.0, 0.0, 0.0, 0.95, 1.26, 1.86, 2.6, 2.91, 3.91, 2.9, 1.16, 0.0, 0.89, 2.24, -0.0, -3.38, -4.12, -3.07, -2.24, -1.86, -1.24, -1.26, -1.26, -1.26, -9.3, -9.3, -9.3, -9.3, -9.3, -9.3, -9.02, -9.02, -8.78, -8.78, -8.45, -8.19, -8.19, -7.9, -7.6, -7.6, -7.6, -7.32, -7.32, -7.6, -7.32, -7.32, -7.32, -6.98, -6.7, -6.34, -6.34, -6.08, -5.98, -5.98, -5.72, -5.32, -5.32, -5.08, -5.08, -4.66, -4.44, -4.44, -4.69, -4.69, -4.03, -4.03, -4.03, -4.03, -3.81, -3.6, -3.4, -3.4, -2.92, -2.75, -2.96, -2.29, -2.32, -1.67, -1.84, -1.7, -1.19, -1.08, -0.55, -0.63, 0.0, 0.0, 0.0, 0.0, 0.0, 0.59, 0.66, 0.65, 0.0, -0.0, -0.45, -0.45, 0.0, 0.0, 0.0, 0.0, 0.0, 0.0, 1.2, 2.12, 2.17, 2.6, 3.72, 4.22, 1.4, 0.0, 0.89, 2.24, 1.7, -1.84, -4.75, -3.82, -2.24, -2.12, -1.86, -1.26, -1.26, -1.26, -9.3, -9.3, -9.3, -9.3, -9.3, -9.3, -9.3, -9.08, -8.45, -8.45, -8.19, -8.19, -8.19, -7.9, -7.6, -7.6, -7.6, -7.6, -7.32, -7.32, -7.32, -7.32, -6.98, -6.98, -6.7, -6.34, -6.34, -6.08, -5.98, -5.98, -5.72, -5.32, -5.32, -5.08, -5.08, -4.66, -4.44, -4.44, -4.69, -4.24, -4.03, -4.03, -4.03, -4.03, -3.81, -3.6, -3.4, -3.4, -3.4, -2.96, -2.96, -2.77, -2.14, -2.32, -1.67, -1.7, -1.73, -1.19, -0.55, -0.55, 0.0, 0.0, 0.0, 0.0, 0.0, 0.0, 0.59, 0.59, 0.0, -0.0, -0.0, -0.0, 0.0, 0.0, 0.0, 0.0, 0.0, 0.0, 0.0, 0.8, 1.34, 1.49, 1.84, 2.88, 1.23, -0.6, 0.63, 2.17, 2.17, -0.0, -4.11, -4.09, -2.24, -2.24, -2.24, -0.63, -0.63, -0.63, -9.3, -9.3, -9.3, -9.3, -9.3, -9.3, -9.08, -8.73, -8.73, -8.49, -7.86, -7.86, -7.86, -7.9, -7.6, -7.6, -7.6, -7.6, -7.32, -6.98, -6.98, -6.98, -6.98, -6.7, -6.7, -6.34, -6.34, -6.35, -5.98, -5.98, -5.72, -5.32, -5.32, -5.08, -5.08, -4.66, -4.44, -4.69, -4.69, -4.24, -4.03, -4.03, -4.03, -4.03, -3.37, -3.6, -3.4, -3.4, -3.4, -2.96, -2.96, -2.77, -2.29, -2.32, -1.8, -1.84, -1.7, -1.19, -1.19, -0.61, -0.55, 0.0, 0.0, 0.0, 0.0, 0.0, 0.0, 0.0, 0.0, 0.0, -0.0, -0.0, 0.0, 0.0, 0.0, 0.0, 0.0, 0.0, 0.0, 0.0, 0.45, 0.0, 0.0, 0.63, 0.71, -0.59, 0.0, 1.86, 1.7, 0.63, -1.9, -4.73, -3.58, -3.74, -2.6, 0.0, 0.0, 0.0, -9.3, -9.3, -9.3, -9.3, -9.3, -8.73, -8.73, -8.73, -8.49, -8.15, -7.86, -7.86, -7.86, -7.9, -7.6, -7.6, -7.6, -7.6, -7.6, -6.98, -6.98, -6.98, -6.7, -6.7, -6.7, -6.34, -6.34, -6.08, -5.98, -5.98, -5.72, -5.72, -5.32, -5.08, -5.08, -4.66, -4.44, -4.69, -4.69, -4.24, -4.03, -4.03, -4.03, -4.03, -3.37, -3.6, -3.6, -3.4, -3.4, -3.42, -2.96, -2.77, -2.29, -2.14, -2.32, -1.67, -1.84, -1.16, -1.16, -0.54, -0.61, -0.55, 0.0, 0.0, 0.0, 0.0, 0.0, 0.0, 0.0, 0.0, 0.0, -0.0, -0.0, 0.0, 0.0, -0.6, -0.6, -0.6, -0.63, 0.0, 0.0, 0.0, -0.71, -0.66, 0.0, 0.0, -0.57, 0.4, 0.95, 0.0, -0.63, -3.45, -5.32, -4.87, -3.51, -0.45, -0.45, -0.45, -9.3, -9.3, -8.94, -8.73, -8.73, -8.73, -8.73, -8.73, -8.15, -8.15, -8.15, -7.86, -7.86, -7.9, -7.59, -7.3, -7.6, -7.6, -7.6, -6.98, -6.98, -6.98, -6.7, -6.7, -6.7, -6.34, -6.34, -6.08, -5.98, -5.98, -5.72, -5.72, -5.32, -5.08, -5.08, -4.66, -4.69, -4.69, -4.69, -4.24, -4.03, -4.03, -4.03, -4.03, -3.81, -3.6, -3.6, -3.4, -3.4, -3.4, -2.96, -2.77, -2.29, -2.49, -2.32, -1.8, -1.67, -1.16, -1.16, -1.16, -0.54, -0.61, -0.55, -0.55, 0.0, -0.51, -0.59, 0.0, 0.0, 0.0, -0.95, -0.63, -0.63, -0.45, -0.89, -0.63, -0.63, 0.0, 0.0, 0.0, 0.0, 0.0, -0.54, -0.66, -0.73, 0.0, -0.59, -0.45, -0.0, -0.45, -0.63, -2.24, -4.02, -4.47, -3.51, -0.63, -0.63, -0.63, -8.73, -8.73, -8.73, -8.73, -8.73, -8.73, -8.73, -8.38, -8.15, -8.15, -8.15, -7.86, -7.59, -7.59, -7.59, -7.59, -7.3, -7.6, -7.6, -6.98, -7.27, -6.98, -6.7, -6.7, -6.63, -6.63, -6.34, -6.08, -5.7, -5.98, -5.72, -5.72, -5.32, -5.08, -5.08, -4.66, -4.44, -4.69, -4.69, -4.69, -4.03, -4.03, -4.03, -4.03, -3.81, -3.6, -3.6, -3.6, -3.4, -3.4, -2.96, -2.77, -2.77, -2.32, -2.32, -1.8, -1.67, -1.67, -1.14, -1.16, -1.16, -0.54, -0.61, -0.55, -0.55, -0.57, -0.59, -0.59, -0.59, 0.0, -0.54, -0.89, -0.63, -1.79, -0.45, -0.45, -0.45, 0.0, 0.0, 0.0, 0.0, -0.6, -1.2, -1.27, -0.73, 0.0, 0.0, -0.53, -0.63, -1.2, -1.26, -1.49, -2.17, -2.68, -3.07, 0.0, 0.0, 0.0, -8.73, -8.73, -8.73, -8.73, -8.38, -8.38, -8.38, -8.15, -8.15, -8.15, -8.15, -7.86, -7.59, -7.59, -7.59, -7.59, -7.3, -7.3, -7.3, -6.98, -7.27, -6.98, -6.7, -6.34, -6.34, -6.63, -6.34, -6.08, -5.7, -5.98, -5.98, -5.72, -5.32, -5.08, -5.08, -4.66, -4.44, -4.44, -4.69, -4.69, -4.03, -4.03, -4.03, -4.03, -3.81, -3.6, -3.6, -3.6, -3.4, -3.4, -2.96, -2.77, -2.77, -2.32, -2.32, -2.32, -1.8, -1.8, -1.67, -1.26, -1.16, -1.07, -0.61, -0.61, -0.55, -0.55, -0.57, -0.59, -1.13, -0.59, -0.61, -1.24, -1.34, -0.0, -0.0, 0.0, -0.45, 0.0, 0.0, 0.0, -0.63, -1.26, -1.2, -1.27, -0.71, 0.0, 0.74, 0.0, 0.0, -0.65, -1.24, -1.24, -1.58, -2.23, -1.9, 0.0, 0.0, 0.0, -8.73, -8.73, -8.73, -8.73, -8.38, -8.38, -8.38, -8.15, -8.15, -8.15, -8.15, -7.86, -7.59, -7.59, -7.59, -7.59, -7.3, -7.3, -7.3, -6.98, -7.27, -6.98, -6.7, -6.34, -6.34, -6.63, -6.34, -6.08, -5.7, -5.98, -5.98, -5.72, -5.32, -5.08, -5.08, -4.66, -4.44, -4.44, -4.69, -4.69, -4.03, -4.03, -4.03, -4.03, -3.81, -3.6, -3.6, -3.6, -3.4, -3.4, -2.96, -2.77, -2.77, -2.32, -2.32, -2.32, -1.8, -1.8, -1.67, -1.26, -1.16, -1.07, -0.61, -0.61, -0.55, -0.55, -0.57, -0.59, -1.13, -0.59, -0.61, -1.24, -1.34, -0.0, -0.0, 0.0, 0.0, 0.0, 0.0, 0.0, -0.63, -1.26, -1.2, -1.27, -0.69, 0.0, 0.75, 1.47, 1.49, 0.0, 0.0, -0.61, -1.4, -1.16, -1.33, 0.0, 0.0, 0.0]}]